GFSGBSN_925_spd_054.txt.gz
Wind_Speed
10 10 9 9 10 11 11 12 12 14 15 16 17 17 18 19 21 22 24 25 26 28 26 26 24 21 13 6 10 10 11 4 5 9 11 12 15 18 17 16 11 18 11 10 13 12 11
10 11 11 11 11 11 12 12 12 13 14 16 16 17 19 20 21 23 24 25 26 28 29 30 22 15 6 12 7 8 9 5 5 11 12 10 8 15 11 11 17 8 18 13 12 13 10
10 10 12 13 11 12 11 11 13 15 16 15 16 18 20 20 21 23 24 26 28 29 32 30 19 10 9 16 7 17 9 6 8 12 13 13 13 11 8 10 14 12 12 14 15 15 15
12 11 12 13 12 16 16 14 15 15 15 16 17 18 20 19 21 22 25 28 30 31 24 16 10 10 9 15 13 18 14 12 15 13 10 10 10 12 12 5 5 13 14 15 15 10 7
12 14 11 13 13 16 16 13 13 15 16 17 18 19 20 20 21 23 28 31 31 11 10 2 8 8 8 5 9 9 12 8 11 19 12 6 7 12 12 13 12 12 14 16 12 9 6
16 14 13 13 15 14 15 14 15 17 17 17 19 19 19 19 20 24 29 24 6 3 3 2 2 6 8 3 2 4 7 4 6 13 10 12 9 12 15 16 17 16 15 15 13 9 10
15 16 14 14 17 15 14 15 13 16 17 18 18 18 18 18 20 23 20 8 3 3 6 10 9 9 11 11 10 7 6 5 7 15 16 18 14 20 25 22 20 11 12 14 7 4 7
16 17 18 16 16 17 14 14 15 16 17 18 17 17 17 17 17 14 10 6 6 6 12 19 23 24 29 19 8 9 9 11 12 15 20 10 20 21 17 18 20 18 15 13 6 6 10
18 17 18 18 16 17 15 14 16 14 17 18 17 16 16 16 14 5 7 4 6 12 7 11 8 9 7 18 11 9 9 7 12 17 20 21 9 18 14 16 19 21 19 14 12 3 11
17 18 19 18 17 16 17 14 17 18 19 18 17 15 15 16 1 10 2 7 10 7 5 4 2 0 4 5 7 23 19 12 11 16 14 16 23 5 19 22 19 19 17 16 13 9 11
19 19 19 20 17 16 19 16 18 15 18 16 15 14 13 9 8 5 9 11 14 3 6 6 3 3 5 6 8 3 18 23 18 12 9 12 12 20 17 18 18 16 7 13 14 13 13
21 19 18 20 20 18 20 17 17 18 16 16 14 13 12 6 4 5 10 14 5 4 5 3 1 7 4 8 4 0 2 11 16 15 15 15 4 13 19 13 12 4 8 7 6 7 12
20 20 22 19 21 19 19 16 17 17 17 16 14 13 10 9 3 4 11 6 4 5 5 6 6 12 11 6 4 7 6 13 11 16 17 13 14 5 9 16 13 15 12 7 9 9 10
20 22 24 19 22 18 18 17 18 16 16 16 14 14 12 12 7 5 5 4 6 2 4 7 7 13 5 8 1 5 5 9 17 12 9 14 9 15 13 14 9 21 17 6 6 9 9
24 24 24 21 19 20 19 20 21 16 15 17 14 11 12 10 10 9 2 5 3 3 4 8 12 6 3 9 6 4 5 3 8 14 8 12 13 10 14 9 13 13 19 16 10 2 4
26 24 22 20 22 19 22 21 19 15 13 13 7 6 16 11 13 12 4 7 6 5 2 4 4 4 5 10 9 7 3 9 3 10 9 6 6 9 16 17 17 11 11 8 10 10 13
25 24 22 24 23 18 19 20 19 15 13 11 6 4 3 11 14 5 6 9 11 12 5 3 3 5 4 8 10 9 5 5 12 7 7 8 5 6 10 14 17 14 12 8 6 10 8
25 24 25 26 20 21 24 23 19 16 12 9 5 4 4 14 5 3 6 9 5 7 7 11 7 7 8 8 8 6 4 7 12 15 2 6 3 7 10 4 5 12 17 18 10 11 6
27 26 23 23 23 23 23 24 19 17 14 7 4 5 6 12 5 8 4 8 9 11 10 6 7 3 5 8 6 7 5 3 9 11 9 5 7 9 10 6 5 4 3 4 3 2 10
27 24 24 24 23 22 23 21 21 18 18 14 3 4 5 6 7 9 16 13 13 10 14 9 8 6 5 10 11 6 4 4 8 7 13 8 3 6 10 3 2 7 5 3 5 6 8
26 25 25 27 26 25 23 22 23 20 23 15 4 4 5 5 11 15 12 4 17 12 13 13 10 15 10 7 12 11 6 6 6 6 4 2 3 2 1 1 1 4 7 7 6 6 6
28 27 26 26 27 25 24 25 25 24 25 19 3 4 4 10 9 15 18 14 17 12 11 13 14 9 13 17 15 8 6 10 7 5 6 6 4 4 5 5 6 8 9 9 10 11 11
29 27 27 26 25 25 23 24 26 24 27 14 11 11 2 7 16 13 13 15 15 12 13 17 14 11 11 15 14 13 12 11 12 8 5 4 3 5 9 3 5 8 15 16 13 12 9
30 30 29 27 26 26 26 26 29 28 32 22 9 6 6 9 9 13 15 15 15 15 17 12 10 12 2 7 10 13 12 12 14 14 11 5 5 3 3 3 7 1 3 0 6 9 8
33 32 30 29 28 29 29 27 26 27 30 26 23 8 4 12 15 19 19 16 15 11 14 14 15 12 3 2 4 8 6 7 12 15 15 12 6 3 4 11 9 12 6 8 7 4 0
38 35 34 33 32 31 31 30 31 33 33 29 27 26 9 5 7 16 15 17 13 13 12 5 10 10 8 3 4 5 5 3 5 7 14 13 12 7 5 7 6 4 5 1 1 3 7
43 41 38 36 34 33 33 33 33 35 35 33 21 32 15 7 13 17 11 12 10 5 4 3 7 6 10 4 5 5 5 1 4 7 8 10 11 14 11 7 3 9 5 2 5 4 9
47 45 41 38 37 36 35 36 37 37 37 35 31 28 27 5 10 11 21 15 11 9 8 4 5 4 3 6 5 4 4 5 5 3 9 10 9 8 11 6 7 5 3 4 7 8 13
30 42 41 40 38 38 38 37 38 39 40 39 26 31 29 6 4 25 28 25 21 22 8 5 3 6 7 7 6 4 4 2 8 6 11 7 7 6 7 7 3 2 3 9 9 9 12

GFSGBSN_925_spd_057.txt.gz
Wind_Speed
8 8 10 10 11 12 12 13 12 13 16 18 19 19 19 20 21 22 24 25 25 26 26 26 23 21 14 8 18 17 9 9 4 8 16 17 19 19 22 20 19 22 21 19 16 13 11
9 10 9 10 12 13 14 12 12 13 16 18 19 19 21 22 22 24 25 25 26 27 28 27 23 16 11 17 14 10 6 3 6 9 16 16 16 16 17 21 18 20 18 22 15 15 16
10 11 10 12 11 13 15 18 17 18 16 15 17 20 21 24 23 25 25 28 30 30 32 27 18 11 12 23 8 5 9 8 10 15 18 19 17 14 13 17 16 17 21 17 20 18 16
13 12 12 13 13 12 14 17 14 15 18 19 17 20 22 24 24 25 28 30 35 31 23 14 10 11 9 10 12 22 18 19 13 19 18 20 17 15 18 14 16 15 20 18 19 19 19
10 12 13 13 13 16 16 16 14 15 18 21 21 21 22 23 25 26 30 32 27 15 7 1 8 11 9 4 9 15 16 17 9 20 20 16 14 16 17 16 14 17 15 21 18 15 10
14 15 15 14 15 16 15 14 15 16 16 20 22 22 22 23 23 26 31 25 18 10 5 6 7 7 6 6 8 4 6 11 8 11 13 15 10 15 18 16 16 17 18 18 17 13 12
13 14 14 14 13 13 16 15 14 16 16 16 20 22 23 23 22 24 25 27 4 8 8 14 15 16 14 2 13 8 8 9 10 11 17 17 15 21 25 24 22 20 18 15 13 5 8
15 14 14 14 16 17 16 16 14 19 15 15 19 20 21 23 22 19 19 7 5 7 13 16 19 18 24 22 10 12 11 14 14 14 15 15 22 21 22 24 23 24 24 15 14 2 7
17 16 16 17 17 17 16 15 14 15 19 18 21 19 19 21 21 11 11 8 9 11 7 10 5 5 4 9 14 14 15 14 13 15 19 23 19 20 22 21 22 21 22 18 17 7 9
18 17 17 18 18 17 16 16 15 15 18 19 21 19 17 19 12 12 9 10 10 9 5 5 3 4 3 2 5 22 12 13 6 17 18 19 23 10 20 24 18 21 18 19 16 15 13
17 18 18 19 17 18 18 17 19 15 17 16 19 18 16 10 16 15 12 13 12 2 6 4 5 3 4 5 8 4 16 19 16 14 13 19 10 18 23 19 20 21 15 15 16 17 15
20 18 19 16 18 18 21 19 18 15 15 18 17 18 16 13 9 14 13 15 10 5 5 3 1 5 7 8 7 2 4 11 12 20 16 18 15 14 14 19 18 16 11 11 13 14 15
19 19 18 18 18 19 20 19 18 15 15 14 16 17 15 14 13 11 13 12 7 6 5 2 2 7 10 7 4 9 6 10 10 12 21 20 21 14 13 19 18 18 14 9 11 12 14
20 19 21 20 20 20 18 18 16 14 16 15 16 20 17 16 14 11 12 8 10 3 4 3 5 11 5 5 3 6 7 8 15 16 12 18 14 22 12 15 18 20 18 9 14 11 14
23 20 20 21 22 20 18 18 19 18 16 15 16 18 19 17 14 14 7 10 5 6 3 6 11 10 3 3 6 4 8 1 5 18 14 12 21 10 14 12 15 17 21 21 18 10 7
18 19 21 22 21 18 18 17 18 16 14 13 14 13 21 15 14 15 6 14 12 6 4 5 7 1 5 5 6 7 2 7 2 10 17 13 10 15 14 14 19 22 12 18 11 12 12
21 21 21 22 21 19 20 18 15 14 12 10 8 4 5 13 17 6 10 15 12 9 6 8 8 7 7 6 5 7 2 5 10 9 10 14 11 9 11 18 19 15 18 13 15 14 9
24 20 21 21 21 21 21 16 18 16 12 11 8 4 5 16 7 5 11 17 15 10 13 14 9 12 11 9 9 5 5 4 7 12 8 15 6 11 18 20 20 18 21 20 10 9 12
22 24 22 22 22 21 19 21 19 16 15 13 5 7 11 14 8 12 13 16 17 15 16 13 13 14 13 11 6 7 10 4 6 7 9 13 8 9 15 11 9 14 19 20 20 14 12
24 24 24 24 22 21 19 20 19 16 17 18 3 4 8 8 9 12 15 14 17 16 19 15 12 12 10 12 11 9 8 3 5 3 5 11 11 14 12 12 13 15 7 10 10 10 13
26 24 24 23 22 23 22 22 20 19 21 14 5 6 6 8 14 17 15 7 19 17 15 15 13 16 15 15 14 15 15 12 7 5 4 5 6 11 9 5 5 6 14 11 12 12 10
26 25 24 26 26 27 25 24 24 22 23 16 3 5 10 11 13 18 19 17 16 14 15 16 16 16 16 17 14 9 8 6 10 5 5 7 3 9 8 6 6 7 9 11 13 12 12
27 27 26 25 25 25 24 25 26 26 23 10 16 15 4 8 16 13 12 18 20 17 12 16 13 13 13 12 10 11 11 8 12 12 10 8 7 4 4 7 8 8 14 14 13 14 13
30 29 29 28 27 26 26 26 26 26 29 19 8 13 6 10 11 13 19 16 14 15 17 12 14 13 7 5 7 11 13 14 15 17 14 12 10 10 5 5 4 6 5 3 12 13 11
33 32 31 30 29 29 27 26 28 28 27 27 23 10 6 9 14 17 15 14 12 10 16 12 11 8 4 4 4 8 10 12 14 20 18 15 11 5 5 7 10 5 3 9 7 7 3
39 36 35 34 33 32 30 30 30 29 28 29 25 24 6 6 13 17 18 16 12 12 12 9 4 4 4 2 3 7 8 11 10 8 19 16 12 9 5 11 11 5 3 2 3 7 11
43 42 42 40 38 35 33 32 31 30 28 27 14 28 11 6 16 14 7 9 10 11 9 1 3 4 8 4 5 6 8 4 5 9 15 14 12 14 11 8 6 8 9 0 11 5 9
43 43 46 44 42 39 35 33 32 31 31 29 26 23 23 6 16 16 17 14 11 4 4 2 2 4 4 6 5 6 4 4 6 3 15 13 10 9 13 10 13 8 3 7 8 4 8
35 29 28 37 44 40 36 34 33 31 31 30 23 26 25 7 8 10 26 29 23 16 7 5 7 2 8 7 6 2 4 2 7 5 12 9 10 8 11 9 3 3 7 8 7 7 8

GFSGBSN_925_spd_060.txt.gz
Wind_Speed
7 9 10 9 10 10 13 13 12 13 16 17 19 19 19 21 24 26 28 29 30 31 31 29 26 22 17 9 17 29 19 8 6 3 13 13 17 18 22 21 21 25 23 23 23 20 18
8 9 10 12 12 12 12 13 17 17 18 18 18 18 21 22 24 26 28 30 33 34 35 33 27 18 13 16 18 15 9 8 10 6 9 12 13 16 21 21 22 22 22 23 22 22 16
9 10 11 12 14 14 13 15 16 16 16 18 19 21 23 24 26 28 28 31 35 38 35 30 21 12 12 23 18 24 12 10 11 7 7 15 19 16 16 19 20 20 22 21 19 19 23
10 10 11 13 14 14 14 17 18 13 15 16 20 23 24 26 28 28 31 32 36 34 28 18 12 7 9 14 15 20 22 26 16 18 10 10 17 17 18 14 19 22 19 18 21 22 21
10 11 12 13 14 15 16 17 16 16 15 16 19 23 26 26 27 30 32 34 34 27 19 10 5 8 10 8 11 11 15 13 11 16 13 8 19 14 13 13 13 14 16 21 22 22 21
12 13 14 13 13 13 15 15 18 15 18 17 17 21 25 25 25 28 32 36 29 24 14 11 15 6 9 6 10 10 6 9 9 8 9 6 8 12 12 13 14 17 19 20 19 19 21
14 13 13 12 13 15 16 15 18 16 18 20 17 20 26 26 26 26 31 21 12 4 9 14 17 16 23 27 16 11 4 6 5 3 13 13 13 17 21 18 20 21 22 21 16 17 15
13 13 14 14 14 15 16 16 16 17 15 16 20 23 25 26 25 25 20 11 12 8 14 19 21 20 26 22 15 11 10 8 6 4 13 13 20 19 18 18 21 24 23 22 22 15 3
14 15 15 15 14 15 16 16 16 16 18 18 22 22 23 25 22 15 11 10 13 15 7 13 8 9 4 6 14 18 14 12 12 10 12 18 14 16 18 18 20 23 23 18 22 18 14
15 16 16 16 15 15 15 16 16 15 17 17 18 21 21 25 16 13 9 13 14 10 6 6 10 6 8 4 5 13 14 12 9 9 6 12 20 14 19 23 20 22 22 22 20 17 14
16 17 17 16 15 15 15 17 17 16 16 16 17 20 20 16 17 10 11 17 15 3 5 7 8 5 5 6 6 7 13 12 12 10 6 4 9 15 23 19 23 23 18 16 15 16 16
15 15 16 17 15 15 16 18 18 17 16 15 15 17 19 17 12 13 15 15 11 3 7 7 4 3 8 13 9 5 4 12 7 14 14 18 12 21 20 17 22 20 16 17 14 13 14
16 16 14 16 16 16 16 18 17 16 13 14 15 16 16 16 14 18 18 11 4 6 3 7 1 2 8 12 7 11 9 9 9 7 14 17 20 21 17 18 17 16 14 9 7 10 10
18 16 16 16 16 17 17 18 16 14 13 14 16 17 18 18 16 15 11 4 10 10 8 6 4 7 11 6 6 9 7 8 13 13 9 5 11 21 15 18 15 18 15 7 8 7 13
18 18 19 18 16 17 18 18 16 15 14 15 15 19 22 17 15 15 5 9 5 14 7 4 8 11 13 6 4 7 11 6 5 16 8 3 8 10 16 16 15 14 14 17 15 7 5
17 16 16 16 17 18 19 15 15 13 14 12 14 17 21 20 18 13 7 15 15 15 9 6 10 6 9 1 5 4 3 8 2 5 15 6 6 15 15 17 17 17 15 10 5 5 6
19 18 18 18 18 16 15 15 15 14 10 8 9 4 15 21 16 5 9 14 16 21 17 7 10 13 7 9 6 9 3 3 8 7 11 14 11 6 14 12 16 13 15 11 13 10 5
20 20 19 18 17 17 16 15 16 12 9 7 5 4 7 17 8 6 10 17 23 19 12 13 8 12 12 9 9 13 11 4 6 6 7 12 6 10 18 18 14 16 14 18 7 9 12
22 21 20 19 20 18 18 17 16 15 12 9 4 9 19 9 7 12 16 20 23 22 18 17 13 12 15 13 13 12 14 9 6 4 8 10 6 9 9 8 13 17 19 12 14 8 6
21 20 19 20 20 20 20 17 16 16 16 13 3 4 9 7 11 16 16 19 18 18 19 22 18 14 14 13 12 11 11 3 3 3 8 5 8 10 9 4 6 7 16 20 16 6 5
22 22 22 22 20 20 19 16 15 14 14 12 3 6 7 5 13 16 19 9 18 18 18 16 18 18 15 13 15 15 15 17 11 5 5 3 5 12 15 17 16 12 15 13 9 13 9
24 23 22 22 22 20 20 19 19 20 16 12 5 5 9 12 16 14 19 19 21 17 19 16 18 17 15 17 16 15 12 12 7 5 2 5 3 12 11 9 9 9 10 7 17 15 5
26 25 24 23 23 22 21 20 21 22 22 10 8 20 5 6 12 15 13 18 22 19 14 15 13 15 15 9 6 11 4 4 7 10 10 2 3 4 3 8 9 8 11 14 16 8 5
27 27 27 26 25 24 23 23 23 22 25 22 10 9 5 13 12 14 18 13 16 19 19 14 11 14 6 12 9 9 10 12 13 15 13 13 9 3 4 6 5 4 2 8 12 7 11
29 28 28 28 28 27 26 27 26 24 24 28 19 9 5 10 13 19 17 16 12 14 12 12 6 5 4 6 4 6 9 9 17 19 19 15 12 4 4 5 8 10 4 2 3 6 11
33 32 32 33 33 32 30 29 29 27 26 27 25 19 4 6 12 18 17 13 12 11 10 11 4 6 2 2 1 4 6 9 7 6 21 17 14 10 7 4 3 7 3 2 1 2 10
37 38 37 37 37 36 34 32 32 29 26 26 16 26 6 4 10 11 4 6 6 5 8 6 6 4 3 3 3 7 11 13 8 11 10 15 12 13 11 8 6 6 3 3 6 5 12
39 39 39 39 39 42 38 35 33 31 28 26 23 21 15 4 12 14 14 12 9 6 4 3 3 1 3 4 4 6 5 6 7 7 6 13 10 8 10 9 12 3 4 5 10 13 10
41 41 41 39 38 41 43 38 35 33 31 27 19 22 22 5 7 14 18 25 22 23 3 3 4 2 3 4 6 3 5 3 5 3 4 3 9 7 9 8 5 6 14 12 12 12 7

GFSGBSN_925_spd_066.txt.gz
Wind_Speed
5 5 5 6 5 7 9 9 10 13 16 15 14 15 16 19 21 26 28 29 29 27 26 26 20 16 7 3 11 13 13 16 19 9 11 6 6 4 5 6 6 12 15 15 15 17 18
5 6 6 7 7 8 9 10 12 14 15 13 15 17 19 22 24 28 31 29 30 30 27 25 17 10 1 4 5 3 7 15 12 10 10 6 2 3 6 7 9 7 12 17 16 20 11
6 7 7 6 7 10 10 10 11 13 12 14 15 17 21 25 28 32 32 31 32 30 30 22 12 3 5 16 11 15 22 15 14 13 4 3 4 3 3 5 2 4 9 13 15 8 9
7 7 6 7 11 12 11 11 11 12 14 14 15 18 23 28 34 34 32 32 32 30 22 8 5 6 8 16 17 22 16 18 15 13 14 11 6 3 4 4 6 4 3 6 7 6 10
5 6 7 9 9 8 8 10 12 15 15 16 17 20 24 30 34 32 31 30 27 23 10 7 8 5 9 11 6 11 10 9 9 5 4 11 2 2 5 1 3 3 5 6 8 8 7
6 7 8 9 10 9 10 10 12 15 15 16 16 20 24 30 34 31 29 32 16 7 11 9 5 2 7 3 8 21 12 9 3 2 4 2 3 1 3 4 8 5 4 5 9 1 7
8 8 9 8 8 9 11 13 14 16 14 16 16 20 23 28 33 25 28 12 6 4 3 8 6 6 7 7 13 8 12 2 3 3 3 1 3 11 10 7 6 7 9 9 13 8 9
8 8 9 9 10 10 10 10 12 15 15 14 17 20 22 29 32 20 13 5 14 13 12 14 19 23 30 20 10 15 14 5 4 4 2 1 9 9 9 9 10 9 9 14 16 10 6
7 8 9 9 10 11 11 12 11 13 14 15 17 19 21 29 29 7 12 13 22 16 4 12 7 7 8 17 10 11 7 6 4 5 5 5 3 6 12 12 11 8 10 12 14 15 13
8 8 9 9 10 10 12 12 11 13 15 17 17 17 19 27 6 22 4 25 22 13 4 8 6 6 5 7 5 13 15 7 5 9 6 5 3 7 8 10 7 9 12 16 19 11 5
6 7 8 9 9 11 10 10 12 14 16 16 16 15 15 15 19 10 13 25 21 2 5 3 4 10 8 6 4 3 7 4 6 5 5 4 2 5 9 14 10 12 7 5 5 5 3
7 8 9 10 10 11 12 11 13 15 16 15 14 14 14 15 14 17 20 23 5 1 7 4 5 7 5 5 2 4 3 2 4 5 4 7 3 4 8 11 8 10 7 5 5 4 4
7 8 9 11 11 11 11 11 13 16 16 15 13 13 12 15 5 21 20 10 2 4 7 2 5 6 10 7 5 7 7 7 6 3 5 3 14 6 4 4 9 8 2 1 3 3 5
8 9 9 10 10 12 13 11 12 15 15 14 14 16 16 22 23 18 14 1 6 5 8 12 10 9 7 4 6 10 8 5 5 3 2 4 6 11 9 9 9 11 6 4 5 1 2
10 12 11 9 10 8 8 10 14 15 14 14 14 17 12 24 12 6 1 3 6 5 5 12 15 4 3 4 6 6 10 6 7 10 7 2 4 2 11 7 9 5 6 3 3 2 1
10 11 11 10 10 10 11 12 13 13 12 12 9 6 14 16 15 6 4 7 5 4 8 7 4 8 9 8 8 6 8 1 4 2 5 3 4 5 6 6 5 7 4 3 3 3 4
11 12 10 12 13 13 13 11 12 12 10 8 5 3 11 10 8 3 8 6 7 10 9 5 4 7 7 5 8 7 2 2 3 4 6 3 3 6 4 8 11 4 4 3 1 2 1
14 13 13 11 12 12 13 12 12 11 9 4 1 2 6 9 4 2 9 4 8 13 9 6 7 8 8 5 3 5 3 3 4 5 3 1 1 4 6 9 4 8 8 7 2 5 4
13 13 13 12 12 13 13 13 13 12 8 2 2 3 12 8 2 6 5 11 12 14 14 5 5 2 9 6 4 3 4 2 1 3 4 2 2 3 6 3 3 4 9 13 5 2 5
12 14 13 11 12 14 14 13 12 12 9 9 2 2 4 2 2 5 4 8 11 7 12 11 12 13 11 5 4 5 6 1 1 3 6 4 1 2 3 3 3 6 6 8 9 3 2
14 14 13 14 14 14 14 14 13 13 8 9 3 4 3 2 2 4 8 5 12 12 4 9 5 12 11 5 6 6 2 5 6 4 4 3 1 2 7 12 12 12 8 12 16 12 6
16 15 14 15 16 17 16 14 13 12 7 9 2 2 2 3 7 7 7 3 8 9 9 13 6 15 7 4 4 8 4 1 2 5 3 4 1 3 3 5 8 7 13 12 13 16 14
17 17 17 18 18 16 14 14 14 13 11 4 5 1 3 3 3 5 5 5 12 11 9 8 13 12 8 6 2 4 4 5 3 3 2 2 1 2 3 7 9 5 3 10 8 7 11
17 17 18 17 17 17 18 18 18 16 14 12 5 3 2 4 4 4 9 14 17 13 7 13 13 3 5 5 5 4 4 6 5 4 4 3 2 2 3 5 3 4 13 11 13 9 8
20 19 19 19 19 19 18 19 19 19 15 17 12 3 2 4 1 4 5 8 10 7 8 10 7 5 4 4 2 2 3 3 5 9 9 9 4 2 3 3 6 10 4 5 4 3 7
19 20 20 19 19 20 20 20 19 18 17 17 17 16 3 2 5 12 3 5 4 4 5 4 6 5 4 1 2 3 3 3 2 4 10 6 3 3 2 2 4 3 6 14 6 2 10
20 20 20 21 23 24 24 24 22 20 18 19 10 23 6 3 3 4 3 2 4 3 3 3 8 4 2 2 2 2 3 2 3 2 1 3 2 10 4 3 6 6 2 6 2 2 5
21 22 25 25 26 26 26 26 26 25 22 21 16 20 14 2 4 3 2 3 0 4 1 4 5 4 2 1 2 2 3 4 2 4 3 5 4 3 3 3 8 11 7 5 4 3 9
23 26 27 25 25 26 28 29 28 27 26 25 12 20 23 4 4 7 14 17 21 18 2 1 3 2 2 1 1 2 2 2 2 2 4 3 4 2 6 4 6 13 11 12 10 11 8

GFSGBSN_925_spd_069.txt.gz
Wind_Speed
4 5 4 4 5 6 7 8 9 11 13 14 14 15 16 19 21 24 28 31 29 27 26 24 19 16 10 2 10 6 9 8 9 3 8 5 5 4 4 4 6 8 4 8 8 8 9
5 5 5 5 6 7 8 10 10 11 13 14 15 17 19 21 23 27 31 32 30 27 26 25 17 9 3 6 5 4 4 8 5 4 5 5 4 5 5 6 7 4 9 16 13 16 11
5 6 7 6 6 8 11 11 12 12 12 14 15 18 20 24 28 31 33 30 29 27 31 22 13 6 6 17 6 14 16 10 8 7 3 4 2 1 2 5 6 5 7 8 10 4 8
5 6 4 7 8 11 9 8 10 11 13 14 15 18 22 27 32 36 33 28 29 29 21 12 8 8 8 13 12 14 7 7 10 9 12 11 9 4 4 6 5 4 3 6 4 8 7
4 4 6 8 9 8 7 8 9 12 13 13 16 19 23 29 32 37 30 28 23 11 7 7 8 5 9 7 8 5 6 4 3 4 5 4 4 6 3 3 4 3 5 4 5 8 6
6 5 6 7 8 8 9 9 11 14 16 14 15 19 24 28 33 37 28 23 8 4 8 5 4 3 7 0 3 9 5 6 2 1 2 2 2 2 0 3 10 5 4 5 5 1 4
5 6 5 6 7 8 8 8 9 11 13 14 16 20 25 29 33 29 24 8 6 3 5 7 7 8 11 7 8 4 5 4 2 4 4 0 2 8 8 6 4 6 5 7 4 5 4
7 6 6 7 9 9 9 9 9 11 12 14 17 20 23 28 34 14 12 5 7 11 13 13 21 24 31 17 7 8 3 3 4 4 1 2 6 8 5 6 7 8 11 12 11 11 4
4 5 6 6 7 9 8 9 9 9 12 15 18 18 21 27 23 12 9 9 23 22 5 11 7 7 6 18 10 8 9 6 4 5 5 5 4 2 6 8 9 11 10 9 10 5 8
5 4 5 5 6 8 9 9 8 9 12 16 16 18 18 26 5 24 3 25 26 9 5 7 5 5 6 7 6 9 10 6 3 8 4 5 4 4 6 5 7 12 7 10 8 6 4
2 2 4 5 6 7 8 8 8 9 11 14 15 15 16 15 13 11 13 28 26 1 5 1 1 8 9 5 2 2 7 3 7 5 5 6 4 4 5 6 7 7 5 6 3 3 3
2 3 4 5 6 7 8 8 9 11 12 14 13 13 14 13 15 7 24 24 4 2 6 6 4 4 4 3 1 3 3 2 4 3 4 6 3 4 7 5 6 5 9 10 5 3 6
3 2 5 6 7 8 8 9 9 11 13 13 12 12 14 13 6 20 22 8 3 3 6 7 4 6 7 3 5 5 6 7 5 4 5 4 11 5 4 3 6 9 4 3 5 4 6
2 2 5 5 7 7 6 6 8 11 13 12 12 13 17 20 21 17 8 2 3 2 6 7 7 12 7 6 6 6 6 4 6 2 1 3 5 9 7 12 5 13 6 3 4 3 2
3 5 6 7 6 5 5 7 9 11 11 10 12 12 16 19 6 4 2 3 5 4 4 9 11 4 6 6 3 4 8 5 6 11 7 3 4 2 6 5 7 4 11 2 1 4 2
3 4 6 6 6 8 8 8 9 9 10 9 7 7 7 9 5 5 2 5 4 4 8 5 3 4 4 11 7 7 7 2 4 7 3 2 4 2 3 6 6 4 3 4 2 3 3
4 8 8 7 8 8 8 8 8 8 8 7 2 3 6 5 13 1 4 4 4 8 9 4 4 5 5 9 9 3 4 3 1 3 8 3 2 6 4 5 7 3 3 2 2 2 2
8 9 7 8 7 8 7 8 7 7 6 3 2 2 7 5 1 3 5 3 2 7 5 5 5 7 9 4 7 2 4 3 4 4 4 1 2 3 7 7 11 10 7 4 2 4 2
8 8 8 8 8 8 7 7 7 7 4 2 1 3 3 3 2 2 4 6 9 13 16 5 5 6 5 2 5 9 6 4 4 1 4 3 1 3 7 4 5 3 10 9 6 1 4
12 11 9 9 8 8 8 8 8 7 3 5 1 2 3 2 1 2 4 7 6 7 10 6 9 10 12 6 3 9 5 4 8 2 7 3 2 2 2 3 2 6 11 7 8 2 2
11 9 10 11 10 10 10 8 8 7 4 8 2 3 3 2 1 2 3 5 7 4 6 7 5 3 4 4 3 10 4 2 3 3 3 3 2 1 6 7 8 11 12 11 8 6 4
11 11 13 11 11 10 11 10 10 7 4 6 2 2 1 2 4 3 5 2 8 6 6 6 5 13 5 5 4 10 2 2 2 3 2 2 1 2 4 4 8 10 11 11 13 11 11
14 14 13 13 14 13 13 12 10 8 10 4 4 3 3 2 1 2 2 5 9 12 6 9 9 10 8 11 8 8 6 3 4 2 1 2 3 2 4 6 10 7 0 6 5 11 6
16 14 13 13 13 13 12 12 13 13 13 11 5 3 2 2 3 4 7 9 11 11 12 15 8 7 5 6 9 7 6 5 3 5 3 4 4 3 3 4 3 5 12 8 5 5 9
15 16 16 16 16 16 15 16 15 15 15 18 11 3 2 3 5 6 8 5 9 9 7 10 4 7 13 7 3 4 3 3 5 8 9 7 4 2 2 3 6 11 3 3 8 8 2
18 19 18 19 18 19 18 17 17 16 14 20 17 12 2 2 5 11 5 4 3 4 5 4 5 11 3 2 2 3 3 3 2 4 2 5 3 3 1 2 3 4 8 3 6 6 3
15 16 16 17 18 18 19 19 18 16 15 18 10 21 4 3 4 4 4 4 1 1 3 4 7 6 3 1 1 2 1 2 2 2 3 3 2 8 6 3 6 5 12 7 3 5 10
17 18 17 18 19 20 21 21 21 20 19 19 16 21 12 3 4 4 3 4 2 2 1 3 3 3 3 3 1 0 1 3 1 3 2 5 4 3 3 4 7 11 9 3 4 11 10
19 18 20 22 24 23 23 23 23 23 23 22 11 20 24 2 4 6 14 18 19 10 0 3 1 2 2 3 2 2 2 3 0 2 1 1 1 2 5 2 5 6 6 10 6 11 6

GFSGBSN_925_spd_075.txt.gz
Wind_Speed
10 8 6 5 3 2 3 5 7 9 11 12 13 14 15 17 20 23 26 28 28 26 23 20 15 12 7 3 10 5 6 5 0 9 7 6 5 4 5 5 3 8 8 8 10 10 14
10 9 7 5 4 4 4 6 7 8 11 13 13 15 17 18 22 25 28 30 26 25 24 23 14 4 2 6 4 5 4 5 5 8 7 7 5 6 4 5 5 4 6 7 9 15 14
10 9 8 7 5 4 4 4 5 7 9 13 13 16 18 21 25 28 31 30 24 26 26 16 10 9 6 16 5 6 11 12 9 10 4 8 6 5 4 4 3 5 8 10 10 10 10
10 9 6 6 5 3 1 2 4 6 10 14 15 16 18 24 28 30 34 27 26 20 11 8 10 10 7 8 11 12 10 11 14 13 10 6 7 3 3 4 4 4 4 5 2 3 8
11 9 7 5 5 5 5 6 6 9 9 11 13 15 19 23 27 30 27 28 14 3 7 9 7 4 9 5 4 3 6 3 4 10 9 2 4 4 3 2 4 2 6 6 9 7 8
13 10 7 5 4 3 3 3 3 5 8 10 12 16 19 22 26 24 24 11 3 3 3 3 2 4 6 1 2 5 3 6 2 5 3 4 1 2 1 6 7 4 5 5 5 4 6
12 9 7 5 3 4 3 2 4 4 7 10 14 16 19 21 25 20 19 3 6 3 5 6 4 6 11 12 12 4 1 1 3 2 5 4 7 12 11 9 12 12 13 17 15 12 17
11 8 7 7 4 3 1 1 1 4 6 9 13 16 19 22 13 15 20 6 3 4 11 9 16 13 23 21 8 8 2 4 5 6 4 2 10 11 6 6 9 11 14 17 12 13 13
9 7 6 5 5 3 1 1 2 3 6 9 12 16 19 24 5 12 11 8 13 1 5 8 5 4 3 10 6 6 5 3 3 6 8 6 2 5 7 6 6 9 11 13 12 15 18
8 7 5 4 4 2 1 1 2 4 6 10 12 13 18 19 3 14 1 19 19 4 3 5 1 1 3 4 3 5 7 4 4 10 6 6 4 6 6 5 4 3 5 10 12 9 5
9 7 6 4 3 2 1 1 2 3 6 9 11 11 13 14 7 3 12 22 14 5 5 5 2 3 3 2 4 1 5 2 6 5 5 3 3 4 8 7 7 4 4 7 10 11 11
10 8 6 4 3 2 3 1 1 4 6 9 10 10 11 8 7 8 19 19 2 2 5 5 3 6 7 2 1 3 2 1 0 4 3 5 2 3 5 4 6 2 5 11 8 6 6
8 7 6 4 2 3 2 2 1 3 6 8 9 9 9 8 5 15 15 3 2 2 6 7 5 8 8 4 3 3 4 4 4 3 3 3 5 4 4 5 4 5 4 3 2 4 5
8 8 5 5 3 3 4 4 3 5 7 7 8 10 8 6 10 8 5 2 3 3 3 6 7 10 4 9 4 5 2 4 5 2 1 2 1 5 4 10 3 7 6 3 3 3 3
10 7 4 4 4 4 3 3 3 5 7 8 8 5 7 11 6 7 3 3 1 3 5 10 11 3 3 6 5 9 2 3 4 10 6 5 3 2 3 3 7 4 5 1 3 5 5
9 7 4 4 5 2 2 1 2 4 6 7 5 3 9 5 6 6 4 2 1 4 6 5 3 7 4 9 7 10 3 2 6 5 3 2 3 0 2 4 4 1 5 2 3 3 5
11 7 2 3 3 2 1 3 1 2 5 5 4 3 7 6 7 5 3 1 3 5 3 4 3 5 5 7 7 6 5 3 12 9 3 1 3 1 5 5 8 4 2 2 2 4 3
12 7 3 3 3 3 1 2 2 2 4 5 3 3 6 9 3 2 1 1 4 5 4 5 4 6 7 8 6 6 4 4 12 10 2 2 1 5 8 3 7 4 2 4 3 2 4
15 9 4 3 3 3 2 2 2 3 4 2 2 1 4 3 3 2 3 3 3 3 5 2 4 3 6 5 4 6 5 6 9 13 7 3 1 2 7 4 4 3 3 3 3 2 5
14 11 7 3 4 4 3 2 3 4 4 3 2 2 2 3 2 3 1 2 4 1 2 3 6 7 12 12 10 8 4 3 6 11 19 5 4 5 2 4 3 2 4 3 5 3 5
6 8 5 7 6 7 4 3 4 4 5 3 2 1 1 1 2 1 3 2 3 4 2 2 1 6 10 5 7 12 12 9 5 2 5 2 3 7 6 4 4 2 6 8 8 9 5
8 9 10 9 8 7 5 5 5 5 7 4 2 2 2 0 1 0 2 1 4 3 3 5 3 11 15 6 9 9 9 5 5 4 2 3 3 5 3 6 1 4 9 5 6 8 13
12 12 13 10 9 8 6 5 5 9 10 3 3 3 2 1 1 0 1 1 3 9 5 6 11 16 12 10 8 12 14 13 11 5 2 3 1 2 1 3 7 4 5 6 5 6 9
14 13 11 12 10 9 7 7 7 12 12 6 4 4 2 2 4 3 3 5 10 8 8 12 11 5 4 11 14 11 14 14 12 15 9 3 5 1 1 2 3 2 8 3 3 4 9
14 12 14 12 12 10 9 8 7 11 13 10 7 4 2 2 4 6 9 7 6 8 6 9 6 8 10 6 4 6 2 3 9 9 10 12 4 1 1 2 6 3 4 4 3 5 10
14 15 14 12 11 11 11 10 10 10 13 14 11 9 2 2 4 6 3 4 4 3 4 4 6 10 3 3 3 4 5 5 5 6 2 7 2 1 1 2 4 0 2 8 4 6 11
16 15 13 13 13 13 13 12 12 11 13 17 7 16 4 2 3 2 3 2 1 1 3 4 8 5 1 3 4 4 3 2 3 4 5 5 3 8 6 4 6 5 12 5 4 3 10
17 16 15 15 14 12 12 11 10 11 12 19 10 20 11 3 4 6 4 5 1 1 1 4 6 2 2 4 4 4 5 4 2 2 0 2 5 3 5 5 6 10 3 2 5 5 7
18 17 15 15 13 12 12 12 12 12 14 19 5 17 22 2 4 5 13 21 17 12 4 1 3 5 3 3 3 4 3 4 4 1 3 1 2 1 4 1 5 7 7 7 9 7 7

GFSGBSN_925_spd_078.txt.gz
Wind_Speed
19 16 14 12 10 8 6 4 4 4 4 7 9 11 12 13 15 17 19 20 23 23 19 18 14 12 9 6 9 3 7 2 3 9 11 11 12 11 13 9 15 17 19 18 17 19 22
19 17 14 13 11 9 7 6 3 2 4 6 8 12 14 15 17 20 23 23 21 20 17 21 12 7 7 9 0 2 4 4 8 10 10 10 6 9 8 10 12 3 9 14 13 16 19
20 17 15 13 11 9 7 5 2 3 3 7 10 11 14 18 20 22 22 24 19 21 19 10 5 10 9 14 3 4 6 7 8 14 12 12 9 9 4 8 10 10 14 15 17 18 18
21 17 15 13 12 9 7 6 3 3 6 8 8 10 14 19 22 23 22 18 21 13 5 5 10 11 7 5 7 11 9 12 13 11 12 9 9 12 10 9 10 10 12 15 6 5 9
20 18 15 15 12 11 8 6 6 6 4 6 9 12 16 19 21 22 18 17 6 3 4 9 7 5 6 4 5 1 7 5 5 11 9 3 6 11 7 11 11 10 10 11 11 11 13
21 18 16 12 10 9 7 5 4 3 4 6 9 13 16 18 21 17 16 4 1 1 2 3 2 4 5 2 5 4 3 6 6 8 9 9 8 9 10 10 9 7 10 11 10 4 14
19 19 15 11 10 9 6 4 4 4 4 7 9 12 16 18 15 13 13 1 2 5 3 8 8 11 15 12 12 5 1 6 8 10 11 13 11 15 16 16 17 14 13 17 16 16 19
23 16 14 12 9 8 6 7 5 3 4 6 9 12 15 18 7 11 12 5 4 5 8 5 8 8 14 9 5 8 8 8 10 13 8 7 15 14 12 13 16 16 15 16 16 12 12
16 14 11 12 10 7 5 4 3 2 5 7 10 11 13 16 3 8 14 7 2 3 5 3 3 3 3 5 3 3 8 11 10 13 12 14 5 3 12 13 13 14 14 12 13 14 19
14 12 11 11 11 7 5 4 2 1 4 7 9 9 12 7 3 3 3 6 7 7 3 3 2 3 3 3 4 2 6 7 8 10 9 10 10 11 9 12 10 10 3 6 9 9 9
13 11 11 11 9 6 5 4 2 1 4 7 8 7 10 9 2 1 5 10 2 4 4 3 4 3 1 5 7 4 5 8 8 8 6 2 5 6 13 17 10 9 3 7 10 12 14
12 11 10 7 6 6 6 5 3 2 2 5 7 8 8 6 3 3 10 8 5 4 2 3 2 5 10 1 1 4 5 5 4 7 11 13 4 6 9 5 9 3 8 12 12 9 8
14 11 8 6 5 7 6 5 4 2 2 5 7 7 5 4 5 12 8 4 4 4 2 4 3 8 11 6 4 4 7 8 7 5 7 4 13 11 10 10 8 10 8 5 7 5 6
13 11 8 8 6 7 8 6 3 1 2 4 5 4 2 3 8 9 4 4 6 4 3 5 5 13 6 6 3 6 5 10 10 9 7 6 5 8 9 13 3 10 11 6 6 4 6
13 13 10 9 8 8 6 4 2 2 4 5 2 3 3 9 9 7 4 3 5 3 4 9 12 9 6 2 6 6 8 8 3 10 7 4 5 4 8 4 9 6 7 4 6 13 7
16 12 9 8 9 7 5 4 2 1 3 5 1 3 5 9 11 4 1 3 1 3 6 4 5 3 7 7 8 7 6 4 4 3 7 3 8 5 3 6 6 7 2 3 5 4 5
14 12 11 10 10 6 4 5 4 2 3 4 2 2 3 11 5 2 3 3 1 1 5 4 4 7 9 11 9 10 7 5 8 7 7 7 8 5 6 10 8 7 7 3 2 5 4
15 11 8 11 8 8 6 5 5 2 3 3 1 1 5 9 2 2 4 2 3 3 2 4 5 8 11 12 16 15 16 9 9 9 7 3 5 11 16 8 8 10 8 8 4 4 2
16 11 8 10 8 7 7 5 4 2 1 1 2 2 3 4 3 4 4 3 1 2 4 3 4 5 9 12 8 11 16 15 5 4 6 7 5 7 8 7 10 11 7 5 3 2 3
17 14 10 7 7 7 6 5 4 4 2 2 2 3 2 3 4 6 3 3 3 2 2 3 6 6 9 10 13 11 14 7 5 12 4 8 7 11 9 2 2 9 11 10 5 3 4
18 15 11 9 9 7 6 5 6 4 3 1 2 2 2 4 4 4 2 1 1 2 2 1 3 1 5 6 14 12 18 18 17 4 2 3 7 12 5 2 13 4 7 8 11 10 6
11 12 10 11 7 9 7 7 6 6 4 3 2 2 2 5 4 3 2 1 2 1 3 2 3 10 12 9 13 14 11 12 10 4 3 1 4 10 7 8 16 9 10 8 8 5 9
12 16 14 12 9 10 9 8 8 8 4 2 2 1 2 4 4 2 3 2 2 7 4 7 9 14 11 7 10 17 17 16 17 14 4 3 5 10 5 8 8 10 11 5 4 4 4
13 13 13 12 12 11 10 10 9 9 6 3 4 3 2 4 3 2 2 6 8 9 11 12 13 9 8 17 18 18 19 19 19 18 11 3 11 4 3 3 6 7 3 1 3 2 8
14 17 14 13 14 14 11 9 9 14 11 4 5 2 1 2 2 4 6 6 7 7 11 12 10 7 15 12 7 9 7 9 13 18 12 12 4 3 2 3 6 3 6 5 6 4 10
15 19 15 16 14 16 13 10 9 12 13 7 6 4 2 1 3 4 4 3 5 5 5 5 8 12 6 3 4 5 4 5 6 5 6 7 12 7 3 1 1 7 3 8 7 4 11
18 16 15 15 16 15 13 12 12 12 14 10 5 8 3 1 3 4 3 4 2 4 5 6 10 4 1 4 4 5 8 8 4 8 6 5 7 10 6 3 2 6 10 6 6 4 12
16 15 14 16 15 14 13 14 13 13 16 13 6 13 6 3 4 6 5 6 7 5 5 6 6 1 4 4 3 4 3 4 2 2 5 6 6 4 3 3 3 14 2 4 6 5 7
18 20 18 17 15 16 14 12 12 11 15 15 5 11 10 3 4 5 10 14 17 12 7 2 5 5 3 4 4 4 4 6 6 3 3 2 5 3 5 4 5 8 8 6 8 7 5

GFSGBSN_925_spd_081.txt.gz
Wind_Speed
29 26 23 20 17 16 14 11 9 10 8 6 7 8 11 13 14 16 19 21 20 19 18 15 16 13 11 8 11 3 8 2 6 10 14 13 15 16 19 18 20 23 22 21 22 21 19
32 28 24 21 18 15 14 11 9 9 8 7 7 10 13 14 16 18 20 22 21 19 18 17 16 8 10 14 3 2 5 8 10 12 14 14 12 11 16 15 18 17 14 18 19 22 19
34 31 26 21 18 16 14 11 10 9 8 7 9 10 11 14 17 19 20 21 18 19 19 12 9 9 11 17 7 6 7 9 11 15 14 12 13 11 6 13 15 18 21 21 21 20 22
35 32 28 23 21 17 15 12 10 8 7 8 8 9 12 15 18 19 19 17 18 12 5 4 5 9 7 3 8 11 11 12 15 14 15 15 12 13 16 13 18 17 19 19 17 18 13
33 29 24 24 21 18 14 11 9 9 8 7 7 9 13 17 19 17 15 16 9 1 1 4 7 10 6 1 5 2 8 11 10 12 10 8 10 14 14 13 14 15 16 17 15 9 12
31 27 25 22 21 16 14 11 10 8 7 7 7 10 13 16 18 14 12 6 4 3 4 6 7 7 6 1 4 6 7 8 7 8 10 11 8 12 15 14 15 12 17 18 13 6 10
27 24 22 21 17 13 13 12 10 8 8 7 8 10 14 16 15 11 13 5 6 8 10 10 10 14 12 11 13 14 6 10 9 9 11 13 12 16 18 17 20 19 19 21 18 17 19
27 24 22 19 16 15 13 12 10 9 7 7 9 12 13 15 9 9 7 2 6 5 7 5 7 8 10 6 6 9 11 9 13 13 13 10 15 17 13 15 16 17 19 20 21 17 15
26 25 22 19 17 15 11 11 9 8 7 8 9 11 11 13 2 3 10 5 5 4 6 5 5 4 2 6 3 2 9 13 13 13 14 15 15 2 9 15 16 18 18 18 19 17 19
22 23 18 18 16 13 10 9 8 6 5 5 7 8 9 3 3 1 3 4 6 2 5 9 7 4 5 4 4 2 3 8 8 13 13 15 15 17 16 18 16 17 17 12 13 14 13
19 17 16 16 16 13 11 9 6 4 4 4 6 7 8 5 6 3 4 5 2 4 4 4 7 4 4 5 8 5 3 5 10 12 8 14 10 10 14 16 14 14 8 11 16 16 18
18 16 15 13 11 9 8 8 6 4 5 4 6 7 7 3 4 4 8 4 4 5 3 6 3 1 6 4 2 5 4 4 7 10 14 16 14 9 14 9 10 14 8 17 20 15 14
15 16 13 11 9 7 7 7 6 4 3 5 5 5 4 3 4 10 6 4 6 6 4 5 1 2 8 12 8 5 9 11 10 9 14 18 17 16 7 13 9 9 10 7 9 10 11
17 14 11 9 9 10 9 9 6 3 2 4 3 1 3 4 7 7 5 6 6 5 4 3 5 12 14 11 11 10 13 14 15 15 13 14 10 12 10 16 11 12 13 8 7 6 12
14 11 10 10 9 12 10 7 5 1 3 3 2 2 1 4 8 6 6 6 6 6 4 7 11 15 12 4 3 15 14 16 15 5 12 13 13 9 9 7 12 6 10 16 15 18 12
11 10 9 9 11 10 8 6 3 1 3 1 2 4 2 8 9 7 5 3 1 4 5 4 6 3 9 9 7 12 8 5 5 6 12 17 17 14 14 8 12 14 4 5 6 5 9
14 12 11 10 9 7 5 6 6 2 3 2 5 3 2 9 7 4 3 3 1 4 5 4 5 9 11 13 13 15 13 10 6 9 15 17 15 18 11 12 16 10 12 8 5 6 4
14 11 10 10 9 6 5 4 3 2 2 2 2 1 3 7 1 2 3 2 1 2 1 2 4 5 6 9 12 14 18 20 7 10 13 10 8 14 21 17 16 9 13 13 6 7 5
14 11 9 10 10 9 6 3 3 2 1 2 0 2 1 4 2 3 4 4 0 2 1 1 3 3 8 10 8 9 13 14 18 12 2 6 6 10 17 14 14 12 17 10 6 2 11
16 12 12 12 11 8 5 5 3 3 1 4 0 2 3 1 2 5 5 4 6 2 3 2 3 3 6 8 10 9 15 12 10 11 7 0 5 14 15 6 3 9 20 11 13 5 7
19 15 12 10 10 9 6 5 4 2 2 3 1 1 2 3 4 5 7 5 4 3 5 4 1 4 3 5 14 12 13 12 17 16 13 5 9 14 20 25 7 1 15 16 16 11 7
20 18 14 12 12 9 7 6 4 2 2 3 2 1 3 5 6 4 2 4 2 3 2 3 3 7 10 12 12 16 14 15 10 12 5 4 9 11 19 22 12 8 14 12 8 9 10
17 18 16 15 11 12 9 7 5 5 2 3 1 2 4 6 7 5 4 3 3 3 4 6 6 10 13 13 12 18 19 19 18 17 16 6 5 6 11 18 8 4 17 17 8 5 6
15 16 15 15 13 13 11 9 7 6 2 2 2 1 1 4 5 4 3 4 6 6 7 8 8 10 13 14 19 20 21 23 22 20 18 9 10 3 12 15 11 7 4 0 3 1 8
17 16 15 15 14 14 13 11 8 7 5 4 3 3 1 2 2 5 7 8 6 7 8 8 9 8 12 16 12 11 12 16 18 19 18 13 7 4 6 10 7 12 6 3 5 6 11
17 17 18 16 16 15 13 11 9 10 8 3 2 1 1 3 4 1 4 4 6 4 4 3 3 10 7 3 5 8 6 11 3 8 16 11 12 4 9 3 5 9 8 4 7 4 11
18 17 20 16 17 16 14 12 10 9 10 5 1 3 1 2 1 4 1 4 3 3 5 4 7 7 1 4 7 6 5 13 6 11 9 8 8 12 7 3 8 13 9 8 7 5 11
19 19 18 17 16 16 15 13 11 10 10 8 2 6 2 2 3 4 4 5 4 4 4 7 6 3 4 4 4 4 4 3 4 3 7 6 4 4 5 3 3 19 5 6 6 5 9
20 19 16 16 16 16 14 12 12 11 12 11 2 6 5 4 4 5 8 11 11 12 8 4 5 4 3 4 5 4 5 5 8 2 4 2 4 3 6 4 10 12 10 9 9 8 9

GFSGBSN_925_spd_084.txt.gz
Wind_Speed
43 37 37 33 28 25 21 19 16 15 13 12 11 11 12 13 16 17 18 20 21 21 20 17 15 14 10 8 11 4 3 3 4 7 14 13 13 14 17 18 20 24 24 25 22 23 24
48 42 41 38 31 25 22 19 16 14 13 12 12 12 13 14 16 18 20 21 22 21 20 19 16 10 6 12 6 3 3 9 11 12 15 15 12 13 16 17 18 19 21 21 18 21 22
51 48 45 40 34 28 22 19 17 14 14 12 12 12 13 14 17 19 21 21 19 18 20 17 11 9 11 20 8 8 8 11 12 15 14 14 13 13 10 13 16 19 21 20 22 22 25
52 46 44 38 34 27 24 21 18 15 14 12 11 11 13 15 17 20 21 19 17 18 10 8 7 9 8 7 8 11 13 14 15 14 14 15 15 12 15 14 19 19 19 18 18 23 25
53 49 41 38 33 28 25 22 17 14 13 12 10 10 13 16 18 20 18 16 14 7 4 5 6 13 7 1 9 9 9 13 15 16 14 11 10 13 14 14 15 15 18 21 23 24 20
50 46 39 36 30 27 26 21 18 13 12 11 9 10 13 16 19 17 15 11 8 5 5 8 10 6 9 7 0 5 5 7 7 6 8 9 6 11 14 14 15 15 17 18 19 14 14
46 40 35 29 27 27 23 19 14 13 13 11 9 10 13 17 17 10 14 5 5 6 15 9 4 14 13 7 12 13 15 9 9 11 12 15 11 15 18 19 19 17 19 20 22 20 19
40 35 30 26 26 20 17 15 15 14 12 10 9 11 14 14 11 7 11 5 7 4 8 20 14 10 10 4 5 6 11 7 13 14 16 14 15 16 16 16 15 16 19 20 19 21 20
40 34 30 26 21 17 16 16 15 14 11 9 10 10 11 12 5 6 3 5 6 6 6 9 10 6 0 3 4 2 8 14 15 16 16 17 17 12 8 13 15 17 18 18 22 20 21
28 25 23 21 20 18 16 16 13 9 9 7 8 9 7 6 4 1 3 4 6 3 4 11 7 6 7 5 4 2 3 9 12 16 17 14 17 17 16 18 14 17 17 19 17 16 14
18 20 21 20 19 16 12 9 8 6 4 6 7 7 5 2 9 3 5 6 5 3 4 13 10 7 4 5 6 8 2 6 13 11 7 11 11 12 14 15 16 18 17 15 13 16 19
22 22 16 17 18 14 11 8 5 4 6 6 6 8 5 3 5 4 7 6 3 3 5 5 8 6 7 15 8 7 6 6 8 12 14 18 16 15 13 13 15 9 13 16 15 14 13
22 20 18 15 12 11 9 6 4 6 6 6 6 6 5 5 3 6 4 4 4 5 8 8 3 2 3 7 13 10 10 13 8 10 14 17 19 19 17 11 12 10 11 8 11 10 13
17 17 15 13 11 6 5 5 6 5 6 6 5 4 3 3 5 5 4 5 6 3 9 5 2 7 12 14 15 10 16 13 16 17 16 16 16 16 18 14 10 14 13 8 9 7 11
17 13 12 10 8 11 8 8 4 3 5 5 3 3 4 2 4 4 4 5 6 9 5 6 9 12 13 12 3 4 12 15 16 19 16 11 17 8 3 9 10 10 12 14 18 17 14
15 12 11 10 9 10 7 5 3 2 4 3 5 5 3 2 3 5 4 4 2 5 6 4 4 4 6 11 10 7 11 11 16 18 20 11 14 19 15 12 14 15 7 5 3 4 8
12 10 9 8 9 8 6 3 2 3 4 4 6 3 3 4 5 4 4 2 3 6 5 4 4 7 8 9 10 11 8 17 12 12 14 13 8 13 22 10 15 13 13 12 5 8 3
13 12 10 10 9 5 4 3 2 2 3 2 5 2 2 5 4 3 2 3 2 3 1 1 3 3 4 6 9 10 13 12 17 21 15 8 4 13 20 20 21 20 15 16 8 7 6
12 10 10 10 10 7 5 3 2 1 4 8 3 3 1 4 2 4 3 4 2 1 2 1 2 1 7 6 5 6 10 10 13 15 11 1 5 8 15 16 16 8 11 20 18 3 9
12 10 9 8 9 7 4 2 1 0 2 6 2 1 3 4 1 3 4 4 5 2 2 2 4 3 4 5 9 8 15 6 7 14 5 6 9 11 14 10 14 14 17 17 12 6 5
14 11 10 9 8 6 4 3 1 1 1 5 2 3 2 2 3 5 4 2 3 1 4 7 2 4 6 7 11 14 12 13 13 14 12 11 16 17 21 24 16 16 22 10 17 15 8
16 13 11 9 9 8 4 3 2 2 2 4 1 3 3 5 5 5 2 5 3 5 2 4 2 9 11 10 13 15 14 14 16 13 11 10 12 17 20 20 19 25 20 6 9 10 7
16 18 13 9 9 8 6 4 3 2 3 1 2 6 4 6 6 5 6 4 2 1 4 8 8 9 11 14 16 16 16 18 20 19 16 11 4 8 14 14 14 12 18 10 11 19 10
17 20 12 12 8 8 6 5 3 3 2 8 3 4 1 2 6 5 3 0 4 5 6 10 8 9 11 14 17 18 20 22 22 21 17 15 11 7 7 9 7 12 12 13 6 17 12
15 15 14 15 11 10 8 7 4 4 1 7 1 5 2 3 3 5 3 5 6 6 8 10 9 8 11 14 10 10 9 14 16 17 16 16 10 5 4 5 15 17 7 8 6 9 16
18 16 14 15 13 12 10 8 6 4 1 6 5 7 3 3 2 6 1 3 6 4 3 6 1 5 10 4 5 7 10 15 5 8 16 15 10 3 3 2 4 7 17 5 3 6 14
18 17 16 15 15 14 11 9 6 4 4 3 4 4 3 2 2 1 4 3 4 3 5 5 8 8 3 3 6 6 5 11 3 4 13 8 4 9 9 6 3 17 17 8 1 5 12
18 17 17 17 15 14 12 10 7 6 6 2 1 0 5 1 3 1 2 3 1 4 4 6 5 5 4 4 4 5 3 4 7 1 9 7 6 5 7 6 5 23 12 7 5 11 10
18 15 18 17 16 12 14 12 8 6 6 5 1 3 1 3 3 10 9 9 9 10 6 5 5 5 5 4 5 3 6 4 8 3 7 2 4 3 6 3 7 12 12 10 10 10 11

GFSGBSN_925_spd_087.txt.gz
Wind_Speed
50 47 45 44 40 40 35 31 27 24 20 18 16 14 13 14 15 18 18 19 20 22 21 19 15 13 8 4 11 15 4 2 2 4 6 9 9 6 10 5 10 15 15 15 14 15 12
52 52 50 49 44 44 39 31 29 25 22 19 17 15 13 15 16 18 19 20 21 21 20 16 14 8 3 7 11 11 3 4 6 9 11 15 8 10 8 11 12 10 12 13 7 9 8
55 56 55 52 48 44 40 33 29 24 21 19 17 15 13 15 16 19 20 21 21 19 16 15 10 7 7 16 10 12 11 10 12 16 11 20 17 6 7 8 7 7 9 11 8 8 12
58 58 57 54 49 46 41 35 29 24 21 17 14 14 13 15 17 19 21 22 18 16 14 7 4 7 8 14 10 16 14 15 16 13 18 18 16 6 4 7 9 7 7 7 5 10 16
53 58 54 51 49 46 38 32 28 25 19 16 14 13 12 15 17 20 22 21 16 12 6 3 5 6 7 9 7 19 15 13 17 20 16 13 8 3 8 5 4 5 8 11 18 14 16
48 53 52 48 45 41 35 30 26 23 18 15 10 11 13 15 17 19 19 17 15 8 4 4 11 3 8 4 6 3 4 7 4 2 6 5 1 4 3 2 6 6 7 8 7 7 14
44 47 49 47 43 39 30 27 25 21 17 11 10 12 13 16 18 15 15 4 1 3 8 10 11 6 7 11 11 6 10 11 4 5 7 7 4 8 9 11 16 16 16 15 12 12 10
39 43 44 43 39 35 27 26 23 16 12 12 12 11 12 15 15 11 11 4 3 1 6 17 20 16 18 5 4 11 16 6 7 8 8 5 9 13 13 16 16 17 13 8 8 9 12
37 38 44 39 33 28 28 23 17 14 15 12 10 11 12 13 12 10 7 3 3 2 2 8 13 17 10 8 5 4 9 5 6 7 10 9 10 16 17 16 10 9 6 8 13 13 14
36 39 30 32 31 27 22 17 15 15 13 8 7 9 11 10 6 5 2 2 3 2 0 5 8 7 6 6 5 10 5 3 5 8 10 10 12 13 12 11 7 11 8 14 14 12 9
35 35 30 25 21 16 16 16 15 9 6 5 6 8 7 6 7 2 4 1 0 1 2 13 9 10 7 7 1 6 6 3 5 9 4 7 9 8 7 8 5 13 9 8 7 13 9
15 17 18 19 22 23 18 14 11 7 4 4 7 7 9 4 8 3 5 1 1 1 4 10 8 8 7 10 8 5 5 2 3 5 9 12 8 7 8 8 4 6 5 7 8 7 9
16 19 18 22 20 19 17 14 10 5 3 8 7 9 9 8 1 4 3 2 2 2 10 4 7 5 3 3 7 3 7 7 4 3 7 14 16 19 15 10 3 4 2 3 3 3 8
21 20 22 17 16 15 13 9 5 1 3 7 7 7 5 9 6 3 3 2 3 7 7 5 6 6 3 5 6 11 4 4 5 7 6 8 14 9 14 17 9 7 8 4 4 3 10
14 12 11 12 11 9 9 9 6 2 4 7 9 4 5 6 4 3 1 2 2 5 5 4 5 5 5 5 3 5 4 5 6 13 6 6 6 12 11 4 9 4 6 14 11 10 8
14 14 12 11 12 11 12 9 5 4 2 4 5 5 6 4 1 2 1 2 4 8 6 6 2 5 4 9 7 9 6 6 11 7 7 6 8 7 10 10 6 8 4 3 2 4 5
15 13 12 10 14 13 10 7 4 3 3 4 3 2 3 3 2 1 2 1 9 7 8 7 6 5 6 5 5 5 4 10 11 12 9 7 1 9 11 3 6 5 6 4 4 5 3
12 12 11 11 9 8 6 5 4 3 4 3 3 1 5 4 2 3 1 4 3 6 3 4 1 1 1 5 3 3 4 5 10 9 5 3 3 6 16 21 18 17 10 5 7 6 5
14 12 11 12 10 8 7 5 3 0 3 3 2 3 2 2 2 1 3 7 6 2 5 2 2 5 6 3 2 3 7 9 7 5 2 5 3 5 10 7 7 8 8 11 15 0 8
12 12 11 11 10 9 6 4 3 1 2 3 2 2 1 1 2 4 5 6 5 4 5 2 3 2 3 3 4 3 5 4 7 6 6 2 3 6 8 13 11 11 20 17 6 4 4
12 11 11 11 9 7 5 3 2 1 3 4 2 2 1 1 2 6 5 2 9 4 2 5 1 3 1 2 5 6 9 11 10 6 6 2 5 8 13 18 19 17 21 17 14 16 5
13 13 12 10 8 7 4 3 2 1 3 3 2 2 3 3 4 6 3 2 1 7 1 4 3 4 5 4 5 7 9 8 4 5 4 3 3 5 11 17 18 21 19 16 14 15 8
15 13 11 9 9 7 4 3 2 4 6 3 3 3 3 2 2 2 4 3 4 6 4 2 4 4 6 6 6 7 8 10 11 12 11 7 3 2 8 13 12 10 13 16 10 7 1
17 16 12 9 7 6 5 4 5 7 9 5 4 3 3 1 2 4 7 6 4 4 2 7 7 4 3 7 7 8 13 16 17 18 15 12 5 3 6 10 5 3 14 9 18 11 12
17 16 13 10 8 7 5 5 6 5 7 7 10 5 3 1 1 7 5 4 4 3 4 5 7 3 5 5 4 6 5 4 9 17 14 16 7 2 3 3 8 5 9 8 1 9 16
18 16 13 13 11 9 6 6 6 4 7 13 14 11 3 2 5 9 6 3 1 3 2 4 6 5 3 2 2 2 3 4 4 7 6 10 12 6 2 3 4 10 17 24 20 6 13
17 13 11 13 11 9 8 6 5 5 6 10 8 13 4 3 5 6 4 2 3 3 1 4 5 6 4 2 1 2 3 7 3 5 3 4 4 9 6 2 3 9 24 24 3 4 10
19 16 14 13 12 11 9 8 6 5 4 8 7 10 7 1 4 6 5 3 3 4 2 4 4 5 4 4 3 3 2 3 4 2 6 3 2 3 4 4 1 21 9 7 5 10 11
18 15 13 14 13 12 10 8 6 5 4 5 3 5 5 3 2 8 9 8 3 4 2 4 2 2 1 3 3 2 2 3 8 2 6 3 4 2 5 3 6 8 10 10 11 10 10

GFSGBSN_925_spd_090.txt.gz
Wind_Speed
49 50 48 49 46 47 45 42 38 35 31 27 24 20 18 16 14 14 17 19 19 19 20 19 16 12 7 3 12 18 10 5 6 8 8 5 4 5 3 4 3 8 14 14 14 14 16
46 51 53 52 49 50 48 45 43 40 34 29 25 21 18 15 15 15 16 18 20 20 20 15 13 9 3 8 12 10 13 9 7 9 6 7 5 4 5 5 6 8 9 7 7 8 6
47 50 51 53 51 54 50 48 45 42 36 29 25 20 18 15 14 15 16 18 20 21 18 13 11 8 7 18 4 4 10 11 11 13 4 11 9 4 4 5 4 4 5 7 4 4 5
49 49 52 54 56 55 55 51 47 41 34 28 23 19 18 15 13 14 16 19 22 19 16 11 5 8 9 15 14 17 17 15 17 15 16 15 9 4 4 3 8 6 3 3 1 6 7
47 49 49 49 52 53 52 47 45 39 33 27 23 19 16 12 12 14 16 20 20 15 11 3 5 6 10 12 6 16 17 10 13 18 20 14 2 3 2 3 5 4 5 10 9 5 8
42 47 47 47 49 50 51 47 41 35 28 26 22 20 15 12 11 13 19 16 13 11 5 5 6 4 9 4 4 5 11 16 7 5 3 3 3 2 2 4 7 5 4 7 7 5 5
32 39 45 43 43 46 45 43 41 34 29 24 22 16 12 12 12 11 17 4 0 3 9 12 11 6 3 5 6 8 9 5 1 3 4 3 3 8 10 9 6 8 9 14 15 11 5
26 30 36 37 42 46 46 44 39 31 27 23 15 12 12 11 12 12 8 4 3 1 6 18 19 20 26 14 6 6 14 6 5 5 3 1 10 14 11 10 10 10 13 17 16 13 6
20 25 30 33 37 44 42 36 33 31 25 16 14 12 10 10 11 12 14 7 1 3 3 6 10 12 10 11 8 6 10 7 4 8 6 9 11 11 13 13 11 10 9 6 11 8 7
9 24 27 29 44 42 34 35 32 25 20 19 14 10 8 7 5 5 6 5 1 3 2 5 8 7 10 7 5 8 10 6 5 7 7 8 14 14 13 9 14 12 8 7 7 5 10
39 37 29 30 28 34 30 23 23 22 21 16 10 7 6 6 5 2 2 3 3 3 2 6 8 11 10 7 2 4 12 3 7 8 4 7 4 4 5 4 4 7 6 5 5 5 6
16 23 24 20 27 24 22 23 22 17 13 10 6 4 3 7 9 2 4 2 5 2 7 7 6 10 8 7 3 4 3 1 4 5 5 8 4 4 6 6 5 1 2 4 3 0 9
19 20 21 19 19 23 20 19 17 13 9 5 4 5 5 5 3 1 2 2 4 4 10 7 7 10 11 6 8 6 6 3 2 2 3 5 6 4 5 8 3 4 5 3 4 0 6
20 23 23 22 20 19 18 16 12 9 6 3 2 3 5 6 1 3 3 1 4 1 4 4 4 6 4 2 1 2 4 4 6 3 0 2 5 5 9 4 10 8 8 5 6 4 10
20 21 19 18 18 17 15 14 11 8 6 3 3 3 1 9 4 3 2 3 1 3 3 4 2 3 3 3 4 3 6 4 4 10 3 4 4 11 6 8 2 4 5 9 5 7 6
11 9 11 11 9 10 13 10 8 6 7 9 5 0 3 8 8 4 1 5 3 5 4 4 3 5 4 4 4 4 5 4 3 8 3 4 5 3 8 7 6 5 1 1 2 3 5
13 13 12 12 15 14 13 10 7 6 6 3 3 1 5 7 7 0 3 1 5 5 2 3 4 4 5 3 5 3 4 6 3 3 6 4 1 3 6 5 7 9 6 5 4 4 4
12 11 11 15 14 12 10 9 6 4 4 4 3 2 10 10 2 3 2 3 6 4 7 6 4 6 5 4 4 3 4 5 4 1 2 3 3 4 4 11 13 9 5 3 3 5 4
13 12 13 12 10 10 8 7 7 4 3 4 2 2 6 5 2 1 2 5 8 4 7 4 4 5 5 3 3 3 4 4 6 4 2 1 3 4 10 4 6 5 7 9 9 8 4
13 12 13 13 11 9 7 5 5 3 1 1 2 2 2 1 2 4 4 3 4 6 5 4 5 6 5 4 5 3 5 6 8 5 3 1 3 4 4 9 9 14 15 10 5 4 8
14 13 13 13 11 7 5 4 3 2 1 2 0 2 2 2 2 5 3 4 7 3 3 3 4 4 4 3 5 4 5 5 6 3 4 3 2 1 6 11 14 16 15 15 13 13 8
14 13 13 12 11 8 6 5 2 1 3 1 2 2 3 2 2 6 4 2 6 8 3 2 4 2 5 3 2 2 0 1 4 1 2 4 3 3 14 12 14 16 16 17 15 15 15
16 16 14 12 10 7 5 4 4 5 2 3 2 1 2 3 3 4 2 4 6 4 5 7 4 3 4 1 3 6 8 7 8 7 5 5 3 2 8 6 12 11 9 15 13 7 9
18 16 13 11 9 7 5 6 6 10 9 4 3 2 3 1 3 3 10 10 9 5 4 1 3 3 2 3 4 4 6 11 12 15 12 5 6 4 4 7 4 1 16 10 11 8 3
18 17 13 10 8 7 7 6 6 9 12 17 10 3 2 2 2 8 8 6 6 4 3 3 4 2 2 5 4 5 4 4 4 7 10 14 6 3 2 3 11 8 7 5 2 6 7
18 17 13 11 10 8 7 6 6 9 10 14 19 6 3 4 4 4 6 4 3 1 3 3 4 6 6 3 3 2 2 3 4 8 10 5 10 6 2 3 3 3 12 11 3 3 7
18 17 14 13 11 9 8 6 7 9 12 13 12 11 5 4 4 3 4 4 3 3 3 3 4 6 4 2 2 1 3 4 4 6 3 3 4 7 5 4 3 12 18 11 3 3 7
21 16 14 14 12 10 9 8 8 7 8 9 10 16 4 3 3 5 4 4 4 4 3 3 4 5 4 4 2 2 1 3 3 3 7 2 3 3 4 1 2 18 6 6 4 7 9
20 17 15 15 15 12 10 9 7 6 6 7 6 11 9 4 3 4 2 2 5 5 4 3 5 2 3 3 1 1 2 3 4 3 6 4 5 2 5 3 4 4 6 8 8 9 9

GFSGBSN_925_spd_093.txt.gz
Wind_Speed
32 36 37 42 48 47 46 45 46 43 41 37 33 29 24 20 18 16 16 17 17 16 16 15 13 10 5 2 12 19 11 2 4 10 10 6 5 5 5 4 3 6 10 8 10 10 9
35 35 41 44 46 49 48 48 48 47 46 42 36 32 27 22 19 17 15 17 16 17 16 12 7 4 1 6 9 9 9 13 10 11 7 8 6 5 5 4 6 4 4 8 5 7 5
43 44 45 45 49 49 51 51 50 49 48 45 40 34 29 24 19 16 16 16 16 16 16 11 5 3 7 18 7 4 5 15 12 12 5 9 5 1 2 5 3 5 6 5 5 3 5
45 49 48 45 48 50 50 52 50 48 47 43 39 33 26 22 19 15 14 15 16 18 13 9 4 6 8 18 12 18 21 23 20 24 23 13 10 5 4 4 6 4 1 3 3 5 6
50 53 46 45 47 48 50 49 50 49 47 42 37 28 24 23 17 13 13 15 18 18 10 5 5 4 10 9 9 22 23 16 22 17 20 11 4 6 1 3 4 3 4 4 7 4 3
52 51 36 36 43 45 47 47 47 47 43 42 35 27 25 21 16 12 13 16 13 9 5 7 4 1 8 5 5 8 14 24 7 3 0 5 2 3 1 4 6 5 3 3 4 6 2
48 33 28 31 35 41 40 40 44 45 45 42 32 29 27 21 15 11 10 6 2 4 9 11 11 5 4 4 7 5 8 10 4 4 6 4 3 10 11 7 3 4 4 6 7 10 4
43 42 25 29 29 34 36 39 42 45 44 38 34 31 24 18 11 11 5 4 6 2 7 19 16 16 20 6 3 6 9 7 6 7 4 2 9 11 6 5 6 6 7 11 7 13 6
30 36 24 21 22 28 34 35 42 48 45 38 32 24 19 13 9 9 14 15 7 5 4 6 12 14 10 10 8 7 12 5 4 7 7 6 9 4 7 5 5 7 6 10 12 5 6
18 23 14 17 19 23 26 38 43 39 36 30 26 21 16 12 5 8 6 17 5 3 3 6 8 9 10 8 6 11 10 7 4 12 6 6 11 12 7 8 8 7 9 12 7 4 5
18 18 26 20 10 15 33 36 35 32 27 24 20 16 12 11 2 4 2 10 8 4 4 4 7 11 13 16 5 7 11 4 8 7 7 7 2 4 8 8 8 8 9 7 3 4 7
11 18 28 35 37 35 30 27 28 26 22 19 14 11 10 10 8 3 3 7 6 3 8 4 6 8 10 8 2 4 5 3 3 5 2 7 2 3 6 6 6 3 2 3 3 2 5
4 12 19 23 25 25 21 20 22 20 17 13 11 11 11 12 6 4 4 4 3 5 4 5 6 11 10 7 4 5 7 3 2 3 4 2 4 3 1 3 2 4 4 2 3 1 6
14 15 17 19 22 24 24 22 20 17 15 11 10 9 10 9 7 5 6 1 7 9 4 3 4 14 5 3 3 4 6 5 6 2 2 3 2 3 4 2 3 5 7 5 6 4 6
12 13 15 17 18 19 19 18 16 13 11 9 9 8 7 11 6 5 3 4 4 4 4 5 4 5 2 4 4 5 4 3 3 5 2 2 4 3 5 2 1 2 1 4 5 2 3
10 11 12 14 15 15 15 13 11 10 11 12 10 8 6 16 9 4 2 5 2 4 6 4 3 5 3 3 4 3 4 3 4 4 1 1 2 3 4 1 7 6 4 3 3 3 4
10 9 9 10 10 12 13 13 10 10 12 12 6 3 6 16 12 1 3 4 1 2 2 5 3 3 4 3 3 3 4 2 4 3 6 1 3 3 4 4 2 4 2 3 3 4 3
11 9 12 15 15 14 13 12 9 9 10 6 3 3 15 18 3 2 3 4 2 4 3 3 4 6 3 3 3 3 4 4 3 1 3 3 2 1 1 8 5 3 2 4 1 3 3
13 11 14 15 14 12 10 9 8 7 6 4 3 3 10 9 3 3 2 3 4 2 3 3 3 4 4 3 5 4 5 4 9 4 3 1 1 2 1 4 5 4 4 3 3 6 7
16 15 15 12 11 11 10 9 8 7 4 2 2 3 1 2 2 3 4 3 4 4 5 5 3 5 4 4 6 3 3 4 6 4 9 3 1 3 4 4 1 6 9 8 6 3 5
16 15 15 14 13 11 10 8 6 5 3 3 1 3 3 4 3 3 3 3 5 3 2 4 4 5 3 3 2 3 4 3 3 4 4 3 2 2 5 5 5 9 13 14 14 13 11
16 15 17 15 12 9 8 6 5 4 3 2 3 2 3 1 2 6 3 2 7 6 3 3 5 7 7 4 3 2 2 1 3 2 3 3 1 1 6 5 8 13 16 16 17 17 15
17 16 16 14 11 8 7 5 4 1 5 1 2 1 2 4 2 3 2 3 5 6 6 5 5 4 5 4 5 7 8 6 6 6 4 3 3 2 5 2 8 11 8 11 16 16 10
19 17 16 14 12 8 7 6 5 6 2 3 1 2 3 1 3 2 9 11 9 4 5 3 5 4 1 3 3 1 3 7 7 10 7 5 5 3 3 3 4 2 7 9 5 7 5
21 18 15 12 10 8 7 6 8 9 12 9 2 2 2 2 3 9 10 9 6 5 4 6 4 2 3 4 3 4 4 2 1 5 9 12 5 2 2 3 8 7 5 6 5 3 7
21 18 15 12 12 10 8 8 7 7 8 10 14 5 4 5 3 4 5 4 4 3 4 3 4 5 5 3 3 3 2 2 3 7 7 7 5 4 4 3 4 1 13 11 5 1 9
21 19 16 13 12 10 8 7 7 9 9 8 12 6 5 4 3 2 3 4 4 3 3 3 3 5 4 2 3 2 1 2 2 3 3 4 3 8 4 3 5 10 16 12 2 3 7
19 20 16 14 13 11 9 8 7 7 6 6 9 12 3 3 2 4 2 4 3 3 3 3 3 4 3 3 2 1 1 2 2 2 6 3 2 3 5 5 3 16 6 5 3 6 6
22 17 17 16 14 13 10 9 8 8 7 6 6 9 10 4 3 3 5 6 4 6 5 2 4 2 3 3 1 2 1 2 1 2 4 2 3 2 4 2 4 5 6 7 8 5 7

GFSGBSN_925_spd_096.txt.gz
Wind_Speed
24 26 28 31 33 35 40 43 46 45 43 40 39 39 34 29 21 18 16 16 16 15 15 14 12 10 4 1 10 7 9 5 5 9 8 5 4 5 5 5 4 5 5 7 7 9 8
28 31 34 35 37 38 39 45 46 47 47 43 42 41 38 30 24 18 15 16 16 16 14 14 10 4 1 5 10 9 9 11 13 13 9 9 6 7 4 5 5 3 5 7 6 8 5
29 34 37 40 42 48 47 44 48 47 48 46 42 43 39 33 25 19 15 14 13 16 16 14 10 5 5 15 8 8 3 12 16 14 6 11 11 2 1 4 2 4 5 6 7 5 6
32 36 40 45 47 49 48 47 44 48 46 45 42 42 38 34 26 19 17 13 12 15 18 13 9 7 9 17 17 20 23 23 13 13 11 8 7 4 4 4 5 2 1 2 4 1 5
30 37 40 45 47 46 43 43 42 46 47 44 45 40 38 34 26 22 19 15 15 9 19 10 5 6 11 7 10 22 24 16 21 17 13 6 6 6 2 3 4 3 4 3 6 4 4
29 36 40 45 46 43 34 36 38 41 41 40 43 39 38 32 26 22 17 12 8 7 6 3 8 4 7 5 6 7 12 22 5 5 3 5 3 4 2 4 7 4 3 3 4 5 2
30 36 42 45 47 42 34 34 35 37 40 38 41 41 36 30 27 20 11 2 4 3 7 10 8 5 4 5 13 6 9 12 1 3 7 6 5 7 18 5 4 2 3 5 5 9 4
28 34 41 45 46 29 31 29 29 34 36 37 42 44 37 31 25 18 12 4 2 6 6 18 26 20 30 9 4 5 18 7 7 6 4 2 8 13 6 5 5 5 4 6 6 7 5
25 29 35 42 37 22 23 21 24 29 32 38 42 38 33 26 18 14 12 12 9 4 4 10 13 12 16 16 9 7 9 5 5 7 8 7 6 9 7 4 5 5 5 5 7 5 5
19 21 24 32 21 15 15 16 22 25 33 40 39 34 28 24 12 9 5 15 14 4 4 7 8 8 14 6 8 20 11 6 4 11 7 6 8 7 5 6 8 4 9 9 7 3 4
14 14 13 15 16 5 4 13 19 26 34 37 31 31 25 15 11 3 2 8 12 4 3 4 5 3 11 14 7 10 12 4 9 7 7 7 5 6 4 10 7 8 7 7 5 5 4
9 5 12 13 19 29 33 37 34 33 32 29 25 22 20 10 6 7 5 14 8 3 8 4 6 7 8 10 4 5 5 2 5 5 2 7 1 4 7 6 7 3 2 2 3 2 2
9 2 6 14 22 25 27 27 26 24 18 17 16 14 13 13 2 6 17 7 4 5 7 2 3 6 7 7 3 5 10 3 5 5 4 2 4 1 2 3 1 3 4 2 2 1 4
5 3 4 6 11 14 16 15 18 19 19 14 12 14 12 12 11 7 8 1 7 5 8 4 1 9 5 4 1 4 7 4 6 2 3 5 2 4 5 2 2 4 6 4 5 3 4
5 5 8 10 11 13 15 15 15 16 15 15 14 10 8 15 11 10 4 5 5 2 5 8 6 10 2 3 5 5 4 3 3 4 3 3 2 3 5 3 1 3 3 2 2 1 2
11 8 7 8 8 10 12 13 13 13 14 14 11 6 2 13 11 12 3 4 6 3 5 5 3 7 0 3 3 4 3 3 3 5 1 1 2 3 2 1 6 5 2 2 3 2 5
14 11 10 10 11 12 11 10 10 12 13 15 6 3 8 11 6 2 3 4 3 2 4 5 3 4 4 2 4 3 4 4 4 3 7 2 2 3 2 3 1 4 2 4 2 2 3
16 12 12 12 11 11 12 11 11 12 13 12 4 3 13 17 3 3 3 5 1 3 7 5 3 4 4 5 4 4 4 4 5 1 3 1 3 2 2 7 2 1 4 4 3 2 2
20 15 15 15 14 15 12 10 10 12 12 5 3 3 8 5 3 3 3 2 4 1 3 3 5 4 4 2 4 6 5 3 5 3 4 3 1 3 2 2 3 4 4 4 0 2 5
22 17 16 17 15 12 11 11 10 10 9 3 2 3 2 2 3 3 4 5 6 2 3 4 3 3 3 5 7 4 4 4 6 3 9 3 2 3 3 2 2 1 3 2 4 2 3
22 19 20 17 14 12 11 11 10 10 8 3 1 4 5 4 4 5 2 2 4 3 2 3 4 3 3 3 2 3 3 3 4 5 4 3 2 2 4 1 2 4 9 10 7 10 5
23 20 20 17 16 13 11 10 10 9 7 3 3 3 1 1 3 5 1 2 6 4 2 2 5 4 5 4 3 3 3 2 2 5 3 4 2 2 2 6 7 8 11 10 13 14 16
21 20 19 18 15 12 10 9 8 8 9 5 2 0 2 2 3 4 3 4 4 6 5 5 8 5 7 3 2 3 4 3 3 4 2 1 3 2 2 0 4 6 1 0 6 9 12
22 20 21 18 14 11 10 9 6 5 13 5 3 2 2 0 2 3 6 8 6 3 6 3 5 4 2 2 2 3 2 1 2 3 4 4 4 2 2 2 1 1 5 1 8 7 11
23 21 20 17 15 11 10 8 4 5 7 6 4 2 2 2 2 8 10 10 10 7 5 5 4 1 1 4 2 2 2 2 2 3 4 5 3 1 2 1 5 4 5 5 4 4 7
25 21 19 16 14 11 10 7 4 6 6 7 6 2 2 5 2 2 5 4 4 3 3 2 3 4 6 3 3 2 1 1 2 3 9 6 3 2 2 2 4 2 11 11 8 4 8
25 22 19 17 15 12 10 7 6 6 5 3 6 2 4 4 2 1 3 4 4 4 3 2 3 4 4 2 3 2 2 0 2 1 1 4 3 4 3 2 3 8 13 8 3 4 8
25 23 19 17 15 12 10 8 7 5 2 2 7 7 3 3 2 3 2 4 3 3 3 2 3 4 3 3 2 2 2 1 2 3 4 2 1 2 3 4 4 13 3 5 5 4 6
24 21 19 18 15 13 11 8 7 5 3 3 5 10 13 5 3 4 11 10 4 5 5 2 4 2 3 4 1 2 1 1 3 0 4 2 0 1 2 2 3 4 5 5 7 5 6

GFSGBSN_925_spd_099.txt.gz
Wind_Speed
19 19 21 24 26 26 28 30 31 31 37 42 42 40 38 34 31 24 20 15 12 11 10 11 11 13 5 2 9 6 7 7 11 14 11 8 7 6 6 5 5 9 6 7 9 8 9
21 22 22 26 29 29 31 34 36 37 37 40 42 43 38 37 33 27 22 17 13 11 8 9 9 9 3 8 11 10 14 12 15 15 10 10 9 8 4 5 6 5 8 9 7 11 6
24 25 25 30 32 31 34 36 38 38 41 37 40 42 39 35 32 30 23 19 16 12 6 7 6 4 8 16 7 11 7 13 17 18 6 11 7 7 6 3 5 4 7 6 8 7 8
25 27 26 30 35 34 36 38 39 40 39 41 36 41 40 31 31 29 24 20 17 12 10 5 3 2 9 16 17 26 27 15 11 19 11 7 9 4 4 2 1 3 1 4 1 6 1
25 26 28 32 38 38 39 41 39 38 35 36 34 40 40 32 36 32 26 22 15 11 10 4 4 7 12 7 9 21 25 16 18 13 11 3 5 4 4 5 3 3 7 5 4 6 4
24 27 29 33 39 40 42 40 45 33 34 31 32 37 35 36 37 32 24 15 6 3 4 3 4 1 8 5 4 6 8 19 7 11 5 6 5 6 6 9 10 7 6 5 4 3 3
25 26 27 32 37 40 42 45 38 26 31 30 28 34 34 33 38 33 23 7 4 3 9 12 11 7 4 2 6 4 2 12 7 7 12 6 8 16 17 14 9 3 3 7 7 9 4
23 23 26 33 33 37 45 37 22 25 28 24 27 31 30 40 38 32 22 4 2 2 7 19 19 18 17 7 1 5 13 6 8 14 15 6 19 14 11 11 10 10 10 11 10 10 7
21 22 25 28 30 35 33 20 20 23 21 21 25 29 35 38 31 26 17 10 9 4 3 8 11 14 15 17 10 14 13 5 11 10 16 16 3 17 16 11 10 8 10 7 9 4 6
22 24 21 20 25 31 27 18 14 15 16 19 23 30 41 35 19 17 6 19 11 6 3 7 8 9 10 9 11 24 13 10 1 14 8 10 11 10 14 15 11 13 13 14 9 3 3
21 16 13 14 16 21 16 11 11 12 14 18 33 41 39 15 23 7 8 16 16 1 3 2 5 1 9 15 1 12 30 4 19 11 7 10 6 13 13 12 13 8 9 11 7 5 2
18 11 4 8 6 6 7 18 20 33 37 40 38 33 25 19 12 16 24 24 11 5 7 4 5 6 8 16 5 5 18 12 6 7 6 11 3 6 7 9 17 5 6 4 2 3 6
14 10 5 5 12 20 24 27 30 30 32 29 24 20 13 12 8 20 31 6 5 5 2 2 4 7 9 10 12 9 17 12 7 10 10 3 11 2 1 4 6 11 6 4 4 4 5
11 10 8 7 6 9 11 14 14 15 15 17 18 15 13 15 21 18 16 3 4 4 6 3 4 5 6 8 6 11 16 8 4 2 5 8 4 1 3 1 4 9 7 4 5 5 2
12 9 8 8 7 7 9 12 14 17 17 17 20 16 12 23 14 21 3 3 5 5 6 7 4 4 3 6 3 6 4 3 3 2 2 4 3 3 7 4 1 4 4 1 2 1 3
19 14 12 10 7 8 9 11 13 16 19 20 11 5 4 14 14 7 2 3 3 1 3 3 3 5 3 1 3 4 3 3 3 6 1 2 4 2 3 1 5 2 3 3 1 4 7
21 17 17 13 12 12 13 12 12 14 17 14 7 2 5 17 13 1 2 4 3 4 3 5 4 1 3 4 3 5 3 4 6 3 3 2 2 1 1 5 2 3 2 4 2 1 3
26 22 19 16 15 16 14 13 12 13 16 11 4 3 9 13 2 2 2 4 3 2 2 7 5 4 1 5 4 6 4 3 2 1 3 1 2 3 3 4 3 1 2 2 2 4 1
30 24 20 18 19 16 15 14 14 17 18 6 2 2 4 0 2 3 3 5 2 2 3 1 3 3 2 2 4 5 5 2 3 2 3 2 1 3 2 1 2 5 4 5 3 2 4
35 28 24 20 19 21 18 14 13 16 15 3 2 3 1 1 2 1 4 5 4 2 3 3 4 5 1 2 6 4 4 4 4 5 10 3 2 1 4 2 3 4 4 3 3 3 3
33 32 24 23 21 21 18 15 13 14 12 5 1 3 4 5 6 7 2 8 7 5 2 2 1 3 4 2 3 4 3 3 6 5 4 2 2 1 1 3 2 3 8 7 7 8 7
35 26 23 26 22 19 17 16 15 14 12 3 3 3 2 4 6 11 6 6 10 4 2 2 3 1 3 3 1 4 5 2 2 4 2 3 3 2 3 6 6 9 12 10 9 10 13
29 27 29 26 22 19 17 16 15 15 13 5 3 2 1 1 4 5 4 4 5 7 3 4 9 7 9 4 4 4 4 5 4 4 2 2 4 3 2 1 3 8 8 9 2 5 9
25 25 25 23 21 18 16 15 14 14 16 5 3 2 2 2 2 4 5 5 10 2 6 3 3 3 1 4 5 6 7 6 4 3 2 4 4 2 1 2 3 4 6 2 4 9 3
27 25 24 22 20 17 15 14 13 12 16 18 4 2 2 3 2 7 9 10 10 7 4 4 4 1 0 3 2 3 2 3 5 5 2 3 3 2 1 2 4 4 4 3 4 3 8
26 26 25 22 19 16 15 12 9 10 12 14 7 6 1 5 1 2 7 6 7 3 2 2 3 3 4 3 2 2 2 2 3 2 7 6 2 1 3 2 2 1 11 8 7 3 10
27 27 24 21 18 16 14 11 8 9 10 8 4 6 2 4 1 0 3 3 3 3 3 1 2 2 2 2 3 2 2 0 2 2 2 4 3 3 3 2 1 6 13 8 3 5 8
27 26 23 20 18 16 13 10 9 9 8 5 4 4 3 3 2 3 2 4 2 2 3 2 2 3 2 3 2 2 2 1 3 1 2 1 2 2 3 3 2 12 2 3 5 5 7
28 25 23 20 18 15 13 10 8 7 6 5 4 8 9 5 3 6 14 10 2 4 5 2 2 2 2 3 1 3 2 1 2 2 3 1 1 1 2 2 3 6 6 5 6 6 7

GFSGBSN_925_spd_102.txt.gz
Wind_Speed
16 15 17 19 18 22 22 23 24 26 26 26 28 29 33 34 31 30 27 21 17 12 10 9 8 12 5 7 10 8 5 8 12 11 13 11 12 12 13 9 12 17 16 14 15 14 16
18 18 19 21 24 23 25 27 26 29 30 31 30 31 31 33 33 30 25 23 18 14 10 7 4 9 6 14 9 8 8 10 13 15 15 16 9 12 12 13 16 2 12 12 10 14 16
17 20 22 24 25 23 30 33 30 32 32 34 30 30 31 34 31 30 24 26 20 17 11 8 7 5 12 18 10 9 9 15 16 20 18 19 20 14 7 13 18 13 16 16 17 17 15
18 20 21 24 25 27 33 37 34 34 36 32 30 30 30 31 31 30 25 27 22 19 11 8 6 3 10 11 14 23 22 18 14 17 19 12 16 17 13 8 7 11 14 14 5 14 13
20 20 23 26 27 29 35 37 35 36 37 34 31 28 26 28 30 33 28 26 22 15 10 5 3 5 12 5 11 18 22 17 21 12 15 8 13 16 13 16 15 16 15 16 10 12 6
20 22 24 27 27 30 36 35 36 37 38 36 29 24 22 26 31 33 30 25 13 7 4 4 6 4 9 11 6 4 6 18 13 14 11 13 8 12 16 16 19 19 19 16 14 8 11
21 23 22 23 24 31 35 34 36 41 40 29 20 22 21 26 32 39 31 13 5 3 9 12 9 9 5 5 6 11 7 14 15 14 20 18 12 24 24 22 21 10 15 14 8 8 6
23 22 21 22 26 30 32 33 35 36 22 18 20 21 20 30 41 31 28 6 6 2 7 19 23 24 26 6 7 12 16 11 13 19 19 14 25 25 18 18 20 22 19 19 15 16 11
20 19 20 24 27 28 30 33 33 27 20 19 18 17 20 35 36 32 24 10 9 7 1 13 19 18 21 21 21 22 21 13 15 16 18 20 19 10 21 18 19 21 21 16 15 5 12
20 21 24 22 24 23 27 31 28 17 14 13 13 16 31 43 24 21 9 17 14 9 4 8 7 7 10 9 11 28 25 15 10 21 17 10 19 19 14 23 22 22 16 15 12 9 10
21 22 21 19 18 18 19 19 19 11 9 9 12 28 39 34 22 11 12 21 14 3 7 2 6 3 8 14 8 11 32 17 20 13 14 16 21 24 19 16 17 19 7 14 15 13 13
21 20 18 12 8 8 6 6 8 6 14 16 36 45 34 22 13 15 29 20 3 5 9 6 6 9 11 17 9 3 17 11 3 1 6 14 1 5 15 17 16 9 6 10 10 11 13
22 22 17 11 4 9 13 10 18 28 31 32 29 26 21 16 11 28 35 8 2 6 3 7 5 8 13 8 8 9 17 13 9 6 10 13 19 18 13 14 14 21 12 6 8 8 12
23 24 20 17 13 9 10 12 16 19 21 20 18 15 10 22 33 39 13 2 9 1 7 1 3 6 8 8 9 14 18 16 18 14 6 9 7 19 9 15 10 22 19 9 10 11 10
25 24 23 20 18 14 9 9 10 13 15 16 16 13 12 24 29 22 5 4 2 6 2 4 7 8 11 9 7 15 17 18 15 9 8 13 8 4 4 5 6 15 19 18 9 5 6
24 25 24 22 18 13 12 13 14 15 18 19 13 11 6 18 20 12 3 4 7 4 2 4 9 2 6 10 8 11 12 3 7 1 7 1 5 4 5 5 4 6 8 7 8 12 15
24 24 28 26 23 18 15 16 17 18 19 15 9 5 9 14 9 1 5 5 5 4 2 3 4 4 2 4 6 3 7 5 1 3 5 7 6 5 2 2 2 4 5 4 4 5 7
26 30 29 30 25 23 21 20 19 19 17 10 5 4 12 17 3 2 8 5 1 4 5 3 2 3 4 4 5 6 5 3 3 5 6 5 2 4 2 3 2 3 2 3 5 8 4
28 27 26 32 29 27 24 22 20 21 20 9 4 3 6 5 6 8 6 7 8 6 8 6 4 3 1 6 2 10 4 3 1 5 5 2 2 3 2 1 1 2 1 2 2 1 9
22 21 20 32 30 28 26 23 23 23 23 6 4 5 3 3 1 5 10 11 10 9 6 4 4 3 3 6 2 10 10 4 4 4 6 1 3 5 5 3 4 4 7 4 2 3 4
22 20 19 30 26 27 25 23 22 24 26 7 4 4 7 8 10 10 9 10 14 8 6 7 6 5 4 5 4 5 6 10 5 0 3 1 3 2 4 4 2 2 6 7 10 10 6
16 22 19 34 27 30 28 25 22 22 19 6 4 4 5 3 12 14 9 9 13 9 8 9 4 6 10 4 3 8 10 7 5 3 3 2 3 1 2 3 4 8 9 10 11 12 14
28 28 27 28 32 31 27 24 22 22 17 6 3 2 3 9 13 11 11 9 14 10 2 4 6 6 9 8 9 9 8 6 6 6 4 3 4 3 2 2 1 7 5 10 9 7 7
12 36 37 33 33 28 25 23 23 22 22 4 2 2 3 6 12 12 13 12 12 11 6 8 6 6 5 9 10 9 9 8 6 6 3 6 6 3 3 3 4 6 5 7 3 9 5
13 30 32 32 29 26 25 22 20 21 21 11 3 4 2 4 7 10 11 9 9 10 10 8 6 4 6 6 6 7 5 5 5 5 5 4 3 3 3 5 4 4 4 3 3 2 6
19 29 29 30 25 24 24 22 19 20 18 16 10 6 2 2 3 5 9 13 10 7 6 5 5 2 2 2 2 4 4 5 6 5 4 6 2 3 3 3 4 5 7 4 1 6 5
25 28 30 26 26 24 22 20 18 18 20 16 6 10 2 3 3 3 5 7 4 3 4 5 5 4 1 3 2 2 3 0 6 6 6 5 2 5 5 3 5 1 9 3 6 5 6
30 29 27 26 23 21 20 17 16 18 22 13 3 8 1 3 5 4 2 4 4 4 5 5 5 2 3 3 3 3 3 2 4 2 1 4 5 4 3 3 2 11 1 4 5 6 5
29 27 26 23 22 20 17 15 15 16 17 10 3 5 5 3 5 7 11 9 5 3 5 3 2 3 2 2 2 3 3 3 4 4 2 3 3 2 4 4 5 7 6 4 4 6 7

GFSGBSN_925_spd_105.txt.gz
Wind_Speed
13 15 15 16 16 17 17 18 18 20 21 22 23 24 25 25 26 28 28 25 22 17 15 11 10 11 9 10 15 14 7 7 9 10 14 13 13 15 21 16 18 24 22 21 20 17 21
14 15 15 17 18 20 20 20 22 22 24 25 25 25 27 28 25 27 27 26 23 18 15 10 6 9 8 19 11 12 10 12 16 17 19 17 15 17 21 24 23 22 18 20 23 20 19
13 15 16 18 19 19 22 22 25 28 28 27 27 27 27 25 24 25 27 28 24 20 16 10 6 7 14 21 18 14 18 23 21 24 19 21 19 18 13 20 22 23 29 25 24 21 22
15 16 17 18 21 21 24 23 26 30 32 30 28 28 26 25 23 24 26 27 24 19 15 8 6 7 10 14 18 25 25 21 20 21 22 20 18 18 21 21 29 24 23 23 20 25 26
16 17 17 20 22 24 25 24 28 31 30 31 30 29 26 24 22 21 24 29 22 16 9 4 5 6 16 0 12 19 22 23 21 20 18 19 18 18 16 18 20 20 22 25 22 19 13
17 17 18 20 22 23 24 27 28 29 29 31 32 31 27 22 18 18 25 26 16 7 3 4 8 4 11 14 8 6 5 17 15 13 16 14 10 16 20 16 20 21 26 26 24 20 17
18 18 19 20 22 23 25 28 29 29 30 31 31 28 20 18 17 25 34 16 6 2 8 12 9 14 4 4 4 10 10 11 15 14 18 17 16 23 25 27 29 27 25 30 25 17 14
19 20 20 21 19 22 28 29 30 28 29 31 23 16 15 17 22 35 27 5 12 5 9 25 24 30 33 26 24 18 9 11 16 20 20 17 20 29 23 22 19 27 28 28 24 22 12
21 21 19 19 21 26 26 30 31 30 29 30 21 18 17 19 28 35 21 14 4 6 4 14 23 25 22 22 28 30 20 21 23 21 24 25 25 12 21 17 18 23 27 24 22 25 22
22 22 19 20 25 25 27 29 30 28 30 23 18 17 18 24 27 18 10 15 13 6 2 12 8 7 12 16 15 22 30 26 22 27 21 19 22 23 11 17 21 20 24 21 25 21 17
24 24 23 22 25 23 25 26 27 29 25 16 16 17 26 33 16 11 14 18 18 6 5 8 6 5 7 18 6 6 10 23 27 21 6 15 15 21 28 28 12 19 18 23 27 22 21
27 25 24 23 24 20 21 19 20 24 14 17 17 23 35 19 12 17 27 27 10 4 10 9 6 8 12 18 15 4 3 15 3 2 6 16 3 9 25 17 15 12 13 18 20 18 16
27 27 26 22 21 13 9 9 12 6 9 21 31 38 22 17 11 29 33 9 3 7 1 10 9 13 16 14 15 15 10 17 11 6 13 13 17 6 9 15 20 18 8 4 5 8 11
26 26 26 25 22 16 10 7 7 15 19 22 22 19 10 7 33 41 19 3 9 10 21 0 5 12 17 15 16 14 17 17 20 15 3 10 7 19 20 19 12 26 19 6 5 5 8
23 23 24 25 24 25 19 14 13 15 16 17 16 14 9 20 37 27 5 6 9 7 5 6 8 13 17 16 14 16 22 19 18 18 9 5 9 14 12 17 20 10 21 24 15 16 10
22 22 24 25 27 32 26 19 17 16 15 15 7 5 5 26 23 10 3 6 8 6 4 7 10 5 13 15 16 18 17 12 21 20 14 5 3 7 11 9 15 16 14 16 7 5 10
22 22 24 23 25 32 28 23 20 17 18 16 7 3 8 20 12 1 5 9 9 8 6 7 9 9 12 8 15 13 7 4 8 10 9 3 4 4 3 9 5 12 9 6 6 8 6
23 24 25 23 27 32 30 27 24 21 19 13 6 3 17 23 4 3 9 5 2 9 9 8 6 7 9 10 9 6 10 3 2 7 15 9 4 6 12 4 4 9 10 4 3 6 7
24 24 24 26 26 29 34 29 27 27 24 10 4 3 12 5 5 7 10 12 9 9 11 8 8 8 6 12 6 3 7 4 2 5 9 8 7 8 8 8 6 7 7 7 5 5 11
24 24 25 23 20 27 34 33 31 28 27 5 4 4 3 3 4 10 18 12 13 13 8 8 3 5 9 10 9 8 7 4 3 3 3 2 5 8 6 2 2 6 9 8 5 5 10
26 24 24 20 21 26 38 36 32 29 27 5 3 5 10 7 9 12 13 10 17 9 12 12 6 11 10 6 9 9 10 11 6 4 4 5 6 6 2 1 1 2 6 7 8 9 6
26 25 21 23 25 26 45 38 32 29 29 7 2 4 7 5 19 20 13 11 18 16 14 11 8 8 12 6 4 10 9 10 6 6 5 2 3 5 8 4 6 8 9 11 11 11 13
26 25 25 21 24 24 36 33 31 29 31 5 9 6 6 7 16 16 14 16 16 11 4 5 7 7 11 6 3 3 3 2 3 9 7 4 4 4 7 2 4 9 6 8 10 10 7
20 25 29 28 33 25 35 33 31 32 29 4 2 5 4 6 12 15 18 14 12 16 6 6 14 8 8 7 9 8 7 6 6 4 4 5 5 3 1 4 5 6 8 4 7 7 8
22 28 32 33 33 32 37 34 33 30 34 9 5 2 3 5 13 15 15 14 8 8 9 8 5 7 11 10 7 8 6 5 4 4 5 5 4 3 3 7 7 6 6 3 3 3 6
22 24 28 38 34 36 34 30 29 28 28 15 13 9 5 3 8 14 12 13 11 10 8 7 7 6 7 4 5 6 5 6 6 6 5 3 2 4 5 4 4 6 6 6 3 4 5
9 26 30 31 31 31 29 28 24 23 20 15 7 8 5 2 4 0 6 10 7 8 7 11 8 6 4 5 5 4 3 2 7 8 6 5 3 7 6 5 5 1 6 3 4 5 6
7 27 35 34 29 28 27 27 22 22 21 15 7 10 7 2 5 5 2 5 3 5 6 10 6 3 6 7 5 3 3 3 4 3 5 7 7 5 4 4 3 9 1 2 3 5 4
24 31 29 28 27 26 25 23 21 22 23 20 7 6 7 2 5 12 12 10 7 7 5 10 2 10 3 5 2 3 3 3 7 6 2 2 2 2 4 3 4 7 7 4 3 6 6

GFSGBSN_925_spd_108.txt.gz
Wind_Speed
13 14 15 15 15 15 15 16 16 17 17 17 19 20 20 21 22 23 20 21 20 20 16 14 12 12 9 8 17 25 15 15 11 10 15 13 13 13 18 15 18 23 23 24 23 23 22
17 16 14 15 16 16 17 16 17 18 20 20 21 23 22 22 23 21 18 21 22 21 16 13 11 10 7 18 17 16 14 14 12 15 18 16 14 16 21 22 22 22 26 27 26 23 22
13 14 14 14 15 15 16 17 20 20 21 22 25 23 24 23 21 18 17 19 21 17 18 11 9 7 11 23 18 20 22 20 20 19 19 20 21 18 16 21 17 22 25 22 22 25 28
13 15 15 15 15 16 18 19 21 20 21 26 24 24 24 23 21 19 16 18 21 16 15 11 7 7 10 16 16 26 24 25 24 20 22 21 21 20 20 19 24 25 26 24 22 25 24
15 15 15 16 17 19 19 20 20 21 23 24 24 24 24 24 22 16 15 15 21 16 14 7 6 9 13 4 14 14 15 20 18 20 15 15 14 18 17 18 19 18 22 27 32 26 26
15 15 16 16 19 19 19 19 20 25 26 26 24 25 24 23 19 13 11 18 17 11 5 6 13 5 11 15 11 6 2 9 12 12 13 14 10 16 15 14 18 22 22 25 27 24 25
17 17 17 17 19 20 18 19 24 26 27 26 25 26 24 18 14 14 26 15 5 2 8 13 14 9 9 4 12 9 6 7 10 13 15 17 15 18 20 21 25 27 27 30 28 27 29
19 19 18 18 18 18 18 24 25 26 28 28 27 25 19 10 13 21 23 6 12 7 11 27 29 28 30 27 20 21 17 17 12 17 18 18 24 22 23 23 23 24 26 25 25 26 24
22 22 19 18 18 20 22 25 26 28 30 29 26 25 15 13 16 28 23 14 2 2 7 15 23 20 23 24 26 24 17 20 22 20 20 22 23 22 23 21 22 25 22 22 24 23 26
23 24 23 20 20 21 24 27 26 29 30 28 24 21 14 14 24 18 11 13 10 0 5 10 13 9 20 23 19 20 25 25 25 28 21 20 23 21 25 22 15 18 20 23 21 14 11
26 26 26 24 24 23 23 27 26 30 31 26 23 15 18 27 12 12 13 21 14 3 5 6 9 6 6 18 1 9 8 13 26 25 16 24 16 13 20 22 17 18 12 13 16 18 14
26 27 26 26 25 24 23 24 25 26 28 24 16 17 22 20 11 15 29 21 11 4 10 7 9 9 11 16 17 5 6 8 9 19 19 16 12 9 14 14 19 7 5 10 12 11 9
29 27 27 27 25 23 22 21 18 15 18 14 15 18 30 19 10 29 35 8 4 7 6 13 13 11 14 16 16 16 15 11 9 5 13 16 21 20 12 15 4 11 1 4 6 7 11
26 28 26 25 23 22 19 17 10 8 9 10 27 27 17 15 27 40 17 2 8 13 25 6 7 17 18 15 16 19 19 17 17 12 11 9 9 20 16 19 11 18 11 5 5 4 6
22 23 21 21 21 21 21 18 9 7 6 10 11 9 7 14 30 27 3 9 10 15 11 16 15 13 18 17 17 16 21 19 19 19 9 6 9 3 13 18 14 5 10 20 14 12 5
20 20 21 20 20 21 21 25 19 13 11 9 2 2 2 21 28 6 3 15 13 12 10 9 12 5 13 16 13 11 20 13 20 22 20 4 6 2 15 15 19 15 7 5 6 4 4
19 19 19 20 21 21 21 25 28 23 19 12 3 2 7 19 9 2 4 7 13 12 12 11 15 14 12 15 12 5 8 7 8 19 12 7 6 3 5 12 16 15 15 4 4 7 4
20 20 19 20 21 21 20 19 32 28 21 13 2 3 16 17 3 2 7 7 4 15 11 8 5 10 13 11 12 11 8 6 5 15 16 20 4 6 12 11 4 6 8 5 4 2 2
19 20 20 21 21 22 23 24 31 33 28 12 2 2 9 11 5 5 9 16 12 12 12 11 11 11 10 10 7 9 3 6 3 4 2 9 6 7 3 8 9 10 11 10 8 7 6
21 20 20 21 22 23 24 23 23 34 33 13 3 4 2 2 3 9 13 15 17 10 12 13 8 7 11 11 12 4 6 7 5 6 5 3 8 9 6 5 6 12 12 8 6 1 6
23 22 23 24 22 22 22 23 28 34 33 13 2 5 9 7 7 13 14 11 18 13 16 11 9 13 12 10 13 14 6 8 7 3 5 3 5 9 8 2 3 3 5 6 8 9 8
27 27 27 26 25 24 24 23 25 36 31 9 2 3 6 6 20 22 15 13 16 17 11 15 14 14 13 12 10 7 10 11 7 6 5 4 2 7 10 9 6 8 7 8 9 10 11
29 29 26 24 26 25 24 24 26 37 28 4 8 8 5 6 9 17 18 14 18 14 15 12 13 8 10 8 6 4 5 6 4 11 8 7 4 3 9 7 3 7 6 8 7 6 8
31 30 28 27 27 23 27 25 31 39 34 11 7 4 2 5 11 16 20 22 18 11 9 11 11 4 2 10 5 5 6 5 5 8 6 4 5 3 1 5 4 9 8 4 4 11 11
27 28 25 29 26 21 24 20 41 39 38 15 3 2 2 4 9 18 20 16 16 8 6 9 7 6 10 11 8 5 2 3 5 5 6 6 5 3 3 7 6 8 6 3 2 5 8
23 26 24 28 29 27 28 24 35 34 34 30 6 8 3 1 8 15 14 14 6 6 8 12 9 8 9 4 5 5 6 7 7 7 8 7 7 4 5 5 6 6 5 8 5 4 7
16 19 27 29 32 33 32 37 35 33 30 25 6 5 4 2 2 1 5 12 6 11 7 10 7 4 5 3 4 4 4 4 7 9 9 6 7 8 7 6 4 1 4 1 3 4 7
20 23 22 22 30 32 38 36 33 29 25 21 6 8 5 2 8 9 4 3 10 4 8 11 6 4 4 6 5 3 2 2 4 2 9 7 5 6 6 8 5 8 3 3 5 7 8
20 20 28 28 37 37 32 29 30 26 21 17 3 7 7 3 3 13 15 13 8 4 7 10 3 11 5 6 4 1 2 1 6 5 2 2 2 2 5 3 5 8 10 5 5 9 8

GFSGBSN_925_spd_111.txt.gz
Wind_Speed
11 11 12 12 13 14 13 12 14 14 14 14 14 15 16 17 16 17 17 16 15 15 14 17 12 14 5 3 14 22 25 25 14 9 8 7 8 6 9 6 9 12 11 13 15 14 11
12 13 15 15 12 14 15 14 13 14 15 15 16 16 18 16 17 16 15 13 13 13 14 15 10 9 2 10 13 17 17 25 16 6 7 11 6 8 9 11 12 12 19 21 17 19 16
14 14 13 13 13 13 13 14 14 14 16 16 16 19 19 17 16 15 14 13 12 11 13 11 11 5 8 19 17 19 21 14 15 17 8 19 20 6 8 14 11 11 17 19 13 8 8
14 13 13 13 13 13 13 15 16 17 15 15 18 19 19 18 15 15 14 10 11 10 12 10 9 4 8 23 25 28 18 20 16 19 22 16 17 6 4 7 11 13 11 15 5 12 16
14 14 14 14 14 13 14 16 14 14 14 18 19 20 20 18 15 14 9 8 8 11 10 10 5 5 10 16 12 22 21 17 17 19 18 10 8 4 5 5 7 6 13 15 26 13 19
15 15 14 14 14 14 16 16 14 15 18 18 18 20 19 18 16 12 8 5 11 13 6 4 9 5 9 6 10 9 16 14 7 6 2 6 3 4 1 4 8 6 8 14 21 13 13
16 16 15 15 16 16 15 14 14 17 20 19 19 20 19 17 12 9 17 15 4 2 7 12 12 7 2 2 11 13 14 10 6 2 6 7 6 8 14 13 16 18 18 19 21 16 12
22 20 16 15 16 16 15 14 17 20 21 21 21 21 17 15 7 13 16 4 5 1 9 24 24 21 21 15 7 10 9 4 7 8 8 7 15 13 15 16 17 18 17 19 22 18 11
20 22 21 17 16 16 16 16 19 21 23 23 22 21 15 10 10 21 20 18 4 8 5 8 17 13 14 24 17 21 13 13 13 11 12 14 7 10 15 15 13 18 9 17 19 16 14
24 21 20 20 19 19 19 20 20 21 23 24 24 21 14 9 22 20 7 20 9 4 4 7 8 8 13 8 8 29 29 14 8 19 12 13 15 16 16 16 6 17 7 3 12 9 9
20 22 24 24 24 23 21 21 22 23 24 25 24 19 12 23 11 12 9 15 12 2 2 4 6 14 15 14 3 3 25 11 19 16 7 13 9 7 2 2 5 3 7 5 3 7 11
22 23 22 23 23 22 23 22 21 22 25 24 22 18 14 25 13 15 17 22 7 3 11 5 6 6 9 19 5 5 4 2 3 4 8 16 4 4 2 3 2 4 4 3 3 1 9
23 23 24 25 24 23 22 21 20 19 20 21 22 13 22 27 9 23 30 9 4 6 5 6 5 9 12 9 10 9 8 6 6 3 4 2 8 3 5 4 5 5 5 3 3 4 6
21 23 25 25 26 24 21 19 17 15 14 15 13 15 14 19 20 37 20 6 7 13 18 3 5 6 14 11 11 15 13 13 7 6 1 5 5 11 10 13 5 6 8 4 5 2 4
19 19 21 22 23 22 20 17 16 14 11 7 6 6 8 14 33 36 8 12 11 8 11 9 17 11 16 9 11 13 18 16 12 13 9 5 6 5 8 6 10 3 6 2 6 5 4
20 19 18 19 20 20 18 16 18 16 11 7 1 1 2 15 27 11 8 17 12 14 14 7 4 3 11 10 8 5 2 5 16 13 11 2 2 4 5 7 8 7 6 2 2 3 4
20 20 17 17 18 19 18 17 18 21 17 12 3 2 5 16 19 2 9 8 11 17 12 9 5 4 5 3 4 3 3 5 4 6 18 7 4 1 2 5 11 7 9 1 3 3 2
20 20 19 18 18 18 18 17 17 22 22 16 3 4 8 16 5 2 7 6 4 12 16 7 6 8 9 8 8 8 8 5 5 5 15 4 1 5 8 3 7 9 17 14 3 2 2
21 21 19 18 18 19 19 18 17 20 27 12 4 2 7 4 6 7 4 13 13 9 12 6 7 7 3 3 2 2 4 3 1 4 4 7 3 3 1 3 3 5 4 5 6 3 4
21 21 20 18 18 19 19 19 19 18 24 20 4 4 1 1 1 4 7 8 8 12 12 13 5 10 2 5 5 2 3 4 4 3 1 2 2 4 4 3 1 3 10 10 6 3 1
21 21 21 19 19 19 18 21 21 20 23 17 3 3 5 5 9 7 8 5 16 9 7 13 9 8 6 5 6 7 4 2 3 5 1 2 3 3 3 6 6 8 3 5 8 5 5
20 20 21 21 20 21 21 23 24 26 26 10 2 3 5 3 13 18 13 7 16 17 9 16 8 8 10 7 4 2 7 5 4 4 5 1 3 0 3 8 4 5 6 5 4 5 1
23 23 23 24 23 22 23 26 25 23 28 3 6 5 4 2 8 12 17 17 8 13 10 10 9 9 8 8 5 4 6 5 2 6 5 6 3 3 3 7 3 3 2 3 9 13 4
23 25 26 25 25 22 24 26 25 23 31 10 8 1 2 2 4 13 12 20 16 11 8 9 5 6 3 9 4 6 8 6 9 7 5 1 5 2 1 5 4 4 6 9 12 10 10
30 32 31 28 26 27 26 26 26 26 29 20 5 4 1 4 4 8 16 11 18 8 4 7 4 8 9 8 6 3 3 3 2 4 7 8 3 2 3 3 6 6 3 2 4 4 6
28 26 27 26 29 29 28 27 31 29 28 22 7 8 1 1 4 7 7 11 3 4 3 3 8 5 6 4 3 4 4 5 5 5 7 5 3 3 1 3 5 3 7 7 3 2 6
17 18 19 22 21 23 26 23 30 27 38 26 7 9 4 2 3 8 3 5 7 5 3 5 4 4 4 2 2 3 3 7 6 8 5 3 1 3 2 2 2 1 6 3 4 3 7
10 14 18 18 23 26 25 23 20 33 36 24 11 9 1 1 4 6 5 3 4 5 4 6 4 3 2 3 3 2 1 1 3 2 7 4 5 3 3 2 4 6 1 3 6 7 9
17 21 25 26 34 31 29 26 24 28 31 22 4 12 3 2 1 7 14 6 4 3 4 4 6 5 4 3 2 2 4 1 5 3 2 1 4 4 2 2 5 7 7 3 8 10 7

GFSGBSN_925_spd_114.txt.gz
Wind_Speed
12 12 11 10 10 9 10 9 9 10 10 9 9 9 10 11 12 12 13 13 13 12 9 10 11 9 5 2 11 12 11 20 17 9 4 1 3 1 3 3 7 5 4 6 9 12 11
15 13 12 12 12 11 11 11 9 8 9 10 10 9 11 12 11 11 12 11 9 9 7 12 10 7 1 7 10 8 9 11 15 8 4 4 4 3 5 3 2 5 10 8 7 9 9
16 14 13 13 11 12 11 9 9 8 8 10 8 10 12 11 11 11 11 11 6 7 8 9 9 5 5 19 12 18 22 25 13 12 3 9 12 1 6 6 2 7 12 12 6 5 5
17 14 13 13 11 10 10 9 10 10 9 7 9 11 12 11 11 9 11 8 6 8 8 8 6 4 8 22 22 31 21 22 18 19 18 20 14 2 2 4 8 6 5 3 4 1 7
16 16 14 13 13 12 11 10 11 9 9 9 11 12 12 11 9 7 8 6 6 5 6 7 4 4 10 11 10 13 17 12 8 13 18 20 10 4 1 3 4 3 6 8 4 8 4
16 16 15 15 12 10 10 12 11 9 9 12 12 13 12 11 9 6 5 2 4 8 8 3 4 4 8 5 7 6 7 16 7 4 3 6 3 4 0 4 5 6 6 7 3 6 3
18 17 17 15 13 13 13 12 9 10 11 12 12 14 13 11 7 8 9 10 4 1 6 11 10 6 5 6 9 8 9 9 4 3 6 5 4 9 16 9 8 4 9 17 14 6 8
23 21 18 16 15 13 12 11 11 12 13 14 13 13 12 9 5 10 12 3 4 1 8 23 22 19 25 6 5 7 14 7 6 6 4 2 12 12 8 8 12 13 15 17 20 8 6
23 24 24 21 16 14 13 11 13 12 14 14 14 13 10 7 5 19 19 13 4 12 4 6 12 10 10 15 11 10 7 6 5 8 8 10 6 8 10 11 14 14 16 16 15 5 5
25 23 21 20 19 18 15 15 14 14 15 16 15 14 9 4 19 17 9 14 12 6 3 6 8 8 9 7 8 25 15 5 5 11 6 9 16 15 14 10 9 10 3 4 3 5 7
27 27 26 24 21 21 21 19 17 15 16 18 18 15 8 12 7 12 7 18 9 1 3 1 5 12 11 9 4 4 27 5 18 7 7 8 1 8 14 16 5 2 2 4 1 1 4
25 24 23 21 20 21 21 19 19 17 17 18 20 15 8 14 17 12 13 16 6 4 9 4 6 7 7 5 3 4 6 6 6 7 9 8 2 6 7 4 4 7 3 1 2 2 3
25 24 22 21 22 21 20 20 18 17 16 17 19 17 14 18 12 20 21 10 3 5 3 5 6 9 10 8 4 4 7 11 6 4 5 3 5 5 5 4 3 4 5 3 3 3 6
24 24 23 22 23 23 21 20 19 17 15 14 15 10 15 24 16 31 18 4 7 8 11 3 3 1 9 8 8 9 6 6 5 3 3 5 6 8 5 9 7 5 7 4 6 3 4
25 23 22 22 22 23 23 22 19 16 14 10 7 5 8 20 25 35 9 10 11 6 4 7 15 9 7 9 8 11 13 14 10 10 9 5 5 2 6 4 8 5 4 2 2 3 1
22 21 21 21 21 21 23 21 20 18 14 10 4 3 4 16 31 16 11 10 11 11 9 6 4 6 5 7 7 10 8 1 11 11 6 6 6 4 3 5 2 6 7 3 2 4 4
21 21 20 20 20 18 19 19 18 18 15 12 5 1 4 15 24 5 6 10 14 11 5 9 7 5 4 2 3 5 7 1 2 1 9 5 5 4 6 8 10 4 4 2 3 2 2
23 21 20 20 20 19 18 19 19 19 18 18 4 4 6 21 6 2 6 11 12 6 8 13 4 5 6 5 3 3 8 6 3 2 4 2 4 7 12 4 9 10 11 10 3 4 2
22 21 21 20 19 18 19 19 18 20 24 11 2 2 5 5 8 10 3 8 6 5 10 5 13 9 7 6 4 4 2 3 5 4 5 6 3 2 2 4 1 7 8 11 10 3 5
21 21 21 22 20 18 18 19 19 18 24 19 3 2 2 1 2 7 7 6 9 8 11 8 8 8 5 6 5 6 4 2 2 4 11 6 4 5 4 3 4 5 8 9 9 3 3
22 21 21 22 22 20 19 19 21 21 20 16 2 3 4 5 6 11 7 6 16 8 8 2 6 14 11 6 6 5 3 4 3 10 5 6 5 5 7 3 4 5 2 8 12 12 7
21 21 23 23 22 19 18 19 20 21 19 14 4 3 3 3 5 16 8 11 17 14 12 7 7 13 8 8 6 8 8 4 5 4 5 3 2 2 2 11 3 4 3 2 2 2 8
21 21 22 23 20 20 20 20 21 23 23 3 6 5 3 5 5 9 14 18 11 16 7 17 16 15 9 6 5 4 5 7 7 7 4 6 4 3 3 7 5 5 2 5 5 7 6
20 21 22 23 23 23 22 24 24 25 28 13 7 3 4 3 7 11 9 18 23 21 10 11 15 11 3 7 6 7 7 3 5 5 5 6 5 1 2 6 4 2 5 8 14 6 6
18 21 23 23 24 26 28 27 26 26 25 27 12 8 3 3 4 8 10 12 14 17 17 7 5 4 8 6 4 3 2 3 3 4 6 6 4 2 3 4 3 4 4 5 4 3 3
24 28 30 29 29 28 28 29 27 26 28 29 19 9 2 3 4 5 5 13 12 4 9 4 3 6 3 3 3 5 4 4 5 5 9 8 4 3 3 4 6 3 3 4 4 1 5
34 33 35 34 34 33 31 29 26 27 30 25 12 14 4 4 2 0 5 4 5 5 3 2 4 1 1 4 3 3 3 6 6 7 7 5 3 7 2 2 0 1 4 2 4 4 6
10 17 20 23 28 30 30 30 28 29 33 25 13 14 4 1 1 3 5 8 3 5 5 5 4 2 1 3 3 2 3 3 3 4 6 9 6 3 3 2 5 2 0 5 5 4 7
9 11 15 18 22 25 22 29 27 30 27 24 6 16 7 3 1 3 11 13 4 4 5 5 4 5 4 3 1 3 2 0 4 3 3 1 5 5 2 2 2 3 4 7 5 9 7

GFSGBSN_925_spd_120.txt.gz
Wind_Speed
18 18 19 18 17 16 15 13 12 12 13 12 11 11 11 11 10 10 9 9 9 9 7 7 7 11 6 4 8 5 5 4 4 4 4 2 2 2 3 1 4 3 3 6 8 7 6
14 13 14 15 15 15 14 13 12 12 13 11 10 10 10 10 9 8 8 9 10 5 5 4 5 6 3 3 4 6 8 0 5 3 1 2 2 3 2 1 2 1 4 7 6 10 6
16 14 15 16 16 16 16 16 16 13 12 11 10 8 8 8 8 6 7 8 7 4 3 3 3 4 1 14 4 7 5 6 7 4 2 1 2 1 2 2 1 3 5 7 5 3 5
18 18 16 17 18 17 17 16 16 13 12 11 10 8 7 7 7 5 4 6 5 4 4 3 4 2 7 7 12 17 19 18 16 9 11 7 3 0 1 1 5 4 4 4 4 5 2
23 20 18 19 19 18 18 16 16 14 11 9 9 8 6 6 6 5 2 4 4 2 3 4 2 1 10 9 9 3 10 5 4 10 9 1 3 3 0 4 4 5 2 2 8 5 4
25 24 22 23 23 21 19 18 16 15 11 9 10 7 6 6 5 4 2 2 1 2 3 4 0 2 7 3 3 1 5 8 3 8 3 3 4 2 2 4 5 4 3 3 5 6 8
26 23 21 22 22 23 21 18 18 15 11 10 9 6 6 6 5 5 6 4 2 1 4 8 6 4 4 9 5 5 5 7 3 3 6 4 4 8 13 7 4 4 3 3 4 10 7
27 25 25 24 24 23 21 19 17 14 11 12 8 5 5 5 4 5 9 3 4 0 8 19 16 10 9 5 5 3 15 5 5 5 6 4 5 10 4 5 5 6 2 6 6 7 6
29 28 28 26 25 25 23 21 19 16 14 12 8 5 5 4 5 7 12 6 6 5 4 6 6 7 5 12 7 7 10 4 4 6 6 6 4 5 7 4 6 5 5 4 7 5 5
30 29 29 29 28 28 24 22 19 16 14 11 9 6 4 5 5 6 8 14 12 7 4 6 4 5 5 8 5 12 15 6 3 9 6 5 5 4 3 5 6 3 6 6 5 1 3
32 33 31 31 32 29 27 24 19 16 14 11 9 6 5 12 2 6 2 9 3 3 3 3 4 10 7 7 1 2 3 2 8 6 6 6 3 4 6 11 5 7 4 4 4 3 2
32 32 34 31 35 33 30 27 23 19 15 13 10 8 6 10 11 8 6 8 4 5 7 3 4 5 6 3 2 4 1 4 4 4 1 7 1 6 7 2 6 5 4 3 3 3 4
32 31 34 34 32 30 29 28 25 22 19 16 14 12 12 9 5 14 4 5 3 4 2 5 5 5 3 5 4 5 5 7 7 5 7 1 8 4 3 3 3 3 5 3 3 1 5
26 30 31 35 34 34 32 30 27 24 21 19 15 13 14 16 16 9 9 2 7 4 5 4 4 5 6 6 4 5 7 5 6 2 3 6 3 7 5 16 7 5 8 5 5 3 3
28 28 30 27 34 34 31 27 25 23 20 18 13 12 12 16 19 16 4 8 7 5 3 2 3 3 4 4 4 4 8 8 9 12 8 5 4 2 4 3 9 4 6 2 1 1 1
27 25 29 33 32 33 32 28 25 23 20 19 12 5 10 14 22 15 8 13 9 4 2 4 6 5 6 5 6 7 8 6 6 11 4 5 2 5 4 5 4 6 7 3 1 3 5
30 28 26 32 33 34 30 26 24 24 22 20 9 2 5 21 26 6 12 12 14 3 5 2 3 2 2 1 7 4 5 3 6 6 10 5 5 2 6 6 9 3 3 2 3 3 4
26 23 34 35 34 29 25 24 24 25 25 24 8 4 8 22 8 6 13 17 10 6 5 7 2 5 4 3 1 1 4 4 2 5 8 6 5 9 13 3 5 3 5 6 4 4 4
25 22 27 33 34 28 27 25 26 25 30 19 3 3 5 5 8 7 11 20 22 14 7 4 8 6 3 3 3 6 6 3 6 6 7 6 1 1 5 3 2 6 7 10 4 2 15
25 23 24 26 27 30 31 28 26 26 33 23 3 4 2 3 2 11 12 9 11 7 16 4 3 5 5 8 4 4 2 2 1 3 1 6 5 6 8 4 3 3 7 10 12 5 4
25 29 37 29 30 30 30 28 26 26 32 23 5 3 3 5 9 11 11 6 14 11 9 10 5 7 6 5 5 8 4 1 1 3 3 4 8 5 5 5 5 5 6 7 16 17 9
29 24 27 27 30 29 26 25 26 28 29 20 4 4 2 3 11 12 14 10 9 10 6 6 12 6 12 12 10 3 7 5 6 3 4 2 3 4 4 7 10 9 11 9 12 10 7
18 29 35 30 28 26 24 24 25 28 26 3 4 2 4 5 4 9 12 15 14 7 5 10 9 7 9 12 7 6 4 5 6 6 7 5 5 4 6 4 2 8 17 13 6 4 5
11 19 18 26 23 22 21 23 24 24 31 8 5 2 2 3 6 9 5 13 17 12 14 4 13 13 4 6 4 3 2 4 8 11 8 6 5 3 2 3 10 1 4 5 8 4 4
6 9 14 16 16 18 19 22 24 25 29 18 9 4 2 2 4 5 5 3 5 10 18 11 12 4 4 3 3 4 3 3 3 7 11 7 5 3 3 5 4 3 4 5 7 6 5
7 9 10 13 15 17 19 21 23 22 24 25 14 13 1 3 5 4 7 9 7 4 2 5 3 5 4 2 3 6 5 2 5 6 8 5 4 5 3 4 6 5 1 3 2 6 9
8 8 9 11 15 18 19 21 24 25 23 22 11 20 4 2 3 5 4 6 5 4 3 2 5 5 4 4 3 4 8 4 7 8 6 4 3 8 4 4 6 4 5 4 5 5 10
12 14 15 18 18 20 20 22 24 25 24 24 17 20 13 1 5 3 4 5 5 4 5 4 3 2 2 7 4 4 3 5 3 4 5 8 7 4 3 3 7 4 3 6 3 2 7
15 19 24 27 29 28 25 24 23 23 24 25 7 21 26 3 2 4 11 12 5 2 4 5 3 4 4 3 3 3 2 1 5 4 3 4 6 5 7 5 1 2 1 1 3 4 3

GFSGBSN_925_spd_123.txt.gz
Wind_Speed
30 29 29 30 29 24 22 19 17 14 13 13 13 13 12 12 11 11 9 9 10 10 7 7 5 8 5 3 7 6 6 5 3 3 4 3 3 3 3 2 1 4 2 3 5 7 7
10 16 17 17 16 17 16 15 14 13 14 13 13 12 11 11 11 10 8 7 9 6 4 4 2 4 3 3 4 7 8 3 3 4 2 3 3 3 3 1 2 1 3 8 5 10 5
11 11 11 12 13 14 13 12 14 13 14 13 12 11 10 10 9 8 7 5 7 2 2 2 1 3 1 12 5 7 6 5 4 4 3 4 4 2 2 1 1 3 6 7 3 1 1
17 14 13 14 12 13 12 14 15 16 16 14 11 10 9 9 8 8 5 4 4 2 3 2 2 1 7 6 8 12 15 14 12 6 5 6 6 5 1 2 3 2 2 3 2 6 2
20 17 16 17 16 15 15 16 15 17 16 13 11 9 9 8 7 6 3 2 2 0 2 2 2 1 9 5 6 2 9 4 4 8 8 6 5 3 2 3 2 2 3 0 5 4 4
27 24 22 21 20 19 18 18 16 15 15 13 10 9 9 8 6 5 4 4 4 1 4 3 0 3 5 1 1 2 7 10 3 9 5 2 3 3 2 5 5 3 3 3 3 3 8
28 28 26 25 26 23 23 23 21 17 16 13 12 10 9 7 5 7 8 3 3 2 6 8 5 3 4 6 6 4 7 7 6 2 5 2 5 12 13 9 3 3 2 6 6 9 6
30 30 27 26 26 25 23 21 19 18 18 14 13 9 8 7 6 7 7 2 3 1 7 17 14 9 6 3 3 3 12 4 4 4 7 4 10 12 6 8 8 7 7 12 7 5 6
26 31 29 26 27 26 26 23 20 19 19 16 14 10 9 6 7 7 8 6 5 2 3 6 7 6 5 10 6 5 10 4 3 6 10 6 1 7 11 7 7 4 10 7 8 6 4
25 27 30 27 28 27 26 24 23 22 19 17 14 11 9 8 7 6 6 14 9 7 2 5 5 5 5 8 6 11 13 5 4 11 9 6 2 6 8 5 7 5 10 9 7 5 4
21 25 28 29 28 28 27 27 27 24 21 19 16 13 10 15 6 6 3 10 12 3 3 4 5 10 8 6 3 2 7 2 8 6 6 4 5 5 7 8 7 4 5 5 1 3 4
22 23 25 28 30 30 29 31 28 26 24 19 16 14 13 14 6 6 3 16 8 4 8 2 4 7 7 3 0 4 4 3 4 4 1 2 0 4 4 3 7 6 4 4 3 0 6
27 23 23 27 31 34 35 35 32 29 26 23 17 15 14 12 4 13 7 6 3 5 2 4 4 6 5 6 4 3 11 9 8 7 8 1 6 2 3 4 2 6 5 2 2 3 5
26 25 27 27 28 34 36 40 37 34 29 24 20 17 15 16 8 11 7 2 5 3 4 0 4 6 6 7 3 4 9 8 4 3 3 8 4 12 8 16 7 9 10 5 6 4 1
25 21 26 25 32 34 35 32 34 34 31 26 21 20 14 19 16 9 3 6 7 6 3 4 4 3 3 3 3 4 9 6 9 11 7 6 4 2 3 4 13 6 6 8 6 3 4
26 24 23 26 24 31 32 36 37 34 31 28 21 12 10 19 14 10 5 12 7 4 1 1 6 3 6 4 6 9 9 5 6 14 4 5 2 5 5 6 3 5 10 3 3 5 6
27 26 26 26 26 25 31 31 33 34 32 32 15 3 8 25 22 5 9 11 7 3 5 2 2 2 2 3 5 4 3 2 4 6 13 5 3 3 8 9 13 5 5 2 2 2 4
26 27 27 23 24 29 28 31 39 38 34 31 9 4 11 30 8 6 13 12 4 1 13 4 3 2 3 2 1 3 4 2 3 4 8 7 3 8 15 2 8 7 10 12 5 5 3
25 26 26 23 28 31 31 32 25 27 34 21 6 3 11 15 9 11 12 19 14 3 5 3 4 5 2 3 3 5 3 2 2 5 6 6 3 5 5 1 2 7 8 9 6 3 14
25 23 25 26 26 30 34 36 37 39 37 19 3 4 2 3 2 10 14 16 15 8 16 11 4 3 2 6 4 2 3 1 2 2 3 3 6 8 10 3 4 5 11 14 14 6 9
23 24 22 24 25 29 38 43 38 40 41 19 3 3 3 7 9 10 11 5 17 11 10 11 11 12 9 9 10 11 9 9 2 3 4 6 11 7 13 10 7 8 12 13 15 17 11
24 24 25 25 25 22 25 28 39 35 40 10 5 3 2 3 12 19 14 14 20 12 10 6 10 11 14 12 12 5 6 5 7 2 5 4 10 6 14 9 13 14 15 14 16 18 16
24 23 25 25 20 24 25 29 32 33 40 5 4 2 3 5 11 13 11 19 17 12 7 12 11 7 9 11 7 5 4 4 4 4 5 3 5 6 12 6 7 10 19 18 14 16 15
20 21 21 25 20 26 31 30 30 33 37 10 5 5 3 5 8 13 10 16 19 12 13 4 7 8 2 5 4 2 1 6 9 12 10 7 5 3 7 5 12 5 2 6 14 17 15
14 13 15 21 30 34 30 27 27 29 28 17 11 5 2 3 8 6 8 6 7 8 12 7 5 4 5 3 4 4 4 3 8 16 17 16 12 9 7 8 6 7 6 7 7 8 12
6 6 1 15 11 22 25 24 23 24 26 20 13 10 3 2 3 4 6 7 4 4 1 4 3 7 3 2 3 6 6 5 4 4 7 14 16 14 5 8 8 3 2 5 4 9 13
1 1 3 8 14 14 18 18 20 22 23 23 10 15 7 1 2 4 3 6 5 4 2 1 5 4 5 6 7 7 7 2 8 5 4 5 4 9 4 3 5 5 7 5 5 4 8
3 3 4 4 7 10 13 16 20 23 24 22 10 19 10 3 3 3 2 3 3 4 5 3 3 2 4 8 7 5 5 6 3 3 6 9 7 4 3 6 10 9 7 8 1 2 7
6 7 8 6 7 10 11 16 19 21 22 19 6 15 17 1 1 3 7 10 3 3 5 5 2 4 4 4 4 3 4 4 3 4 4 6 5 6 8 4 1 1 2 2 2 4 7

GFSGBSN_925_spd_126.txt.gz
Wind_Speed
32 37 37 37 35 31 28 27 26 24 19 17 16 15 15 14 13 13 12 12 12 13 11 10 8 8 5 6 6 4 7 6 1 1 2 2 4 3 7 2 5 8 3 3 4 7 9
12 7 27 36 34 31 29 27 23 18 14 12 12 12 12 12 12 12 11 10 11 11 6 6 4 5 4 12 3 5 4 3 3 3 3 3 2 1 3 4 7 2 3 7 7 9 8
13 12 11 4 9 16 20 17 13 10 8 9 11 11 12 11 12 11 11 8 8 6 4 3 2 3 7 13 3 5 5 5 3 2 4 2 3 7 4 4 1 2 7 7 4 3 3
16 14 14 12 9 8 8 8 8 6 9 8 11 11 11 11 11 10 9 7 6 4 2 3 2 2 8 4 4 7 8 7 5 3 3 5 3 3 5 2 4 7 5 6 6 4 2
18 17 12 13 12 13 14 12 11 10 11 9 10 10 11 10 10 8 7 3 4 2 2 2 3 3 7 3 5 4 12 8 8 8 4 5 5 3 5 9 6 7 7 6 5 2 2
19 22 21 21 20 19 18 16 14 15 12 11 11 9 11 10 9 7 6 5 2 2 3 2 5 4 7 1 2 4 7 13 4 14 9 7 6 8 7 9 8 4 7 6 8 7 7
19 21 28 26 23 23 22 20 19 20 18 15 11 12 12 12 9 8 8 3 5 6 7 8 1 4 2 2 3 5 9 10 13 12 9 13 8 13 11 12 8 6 8 11 10 6 8
17 19 20 25 28 26 25 23 22 21 19 17 15 15 12 11 9 9 8 5 3 3 7 16 17 12 10 2 3 9 13 9 10 9 9 7 14 13 1 5 8 9 11 13 8 2 7
13 17 18 21 29 26 24 26 24 23 21 18 17 18 13 11 9 9 13 8 2 2 5 6 8 9 8 12 8 13 15 7 9 11 15 13 3 3 12 9 11 9 11 10 10 9 13
14 17 18 20 24 27 24 25 27 25 23 22 20 18 16 13 8 10 11 16 8 4 5 7 7 6 9 8 8 14 17 9 7 14 10 9 7 8 12 13 10 11 4 7 7 6 5
14 18 20 18 22 22 25 26 28 28 26 23 23 18 17 22 6 10 3 10 10 3 6 8 6 7 7 14 5 8 16 9 14 9 7 5 10 13 12 10 10 4 3 4 5 8 8
14 20 23 22 18 22 24 27 27 29 29 28 27 22 19 18 7 6 7 16 9 3 10 6 6 8 9 10 5 8 12 8 7 8 6 5 1 6 4 4 10 7 6 4 5 5 7
15 15 18 24 29 20 24 26 29 31 31 31 29 29 27 17 6 12 17 10 5 9 4 7 7 9 13 10 9 9 16 16 10 9 13 13 13 6 9 9 7 11 7 3 5 5 6
18 18 17 19 25 27 24 28 30 34 35 35 33 28 25 20 12 19 11 6 8 12 16 2 4 10 9 15 8 10 15 13 13 7 8 10 7 19 15 18 7 15 12 6 6 7 7
18 20 21 21 24 23 29 27 29 32 38 38 37 32 20 19 17 17 4 10 15 16 4 7 9 9 8 10 6 10 13 9 12 15 6 7 5 8 4 6 12 7 9 13 15 12 9
18 20 23 22 23 23 29 26 30 34 42 40 31 20 19 25 20 6 6 17 13 4 3 7 12 6 11 13 10 12 12 8 6 17 11 4 5 9 7 8 10 10 10 4 5 7 14
18 20 22 24 23 25 24 28 28 30 35 47 19 5 21 26 23 3 10 21 20 8 2 2 6 5 4 6 8 8 5 5 5 6 15 7 7 8 9 12 15 9 11 8 5 9 10
19 20 21 23 25 26 25 23 28 30 40 40 8 5 27 37 7 5 15 29 16 13 12 3 2 1 6 6 7 8 9 2 2 7 8 12 6 13 17 12 13 18 17 18 11 12 7
20 21 22 23 24 26 28 25 25 26 29 29 6 4 24 32 10 13 25 26 21 15 8 9 7 6 4 5 5 7 5 3 2 4 7 8 7 11 16 7 10 14 20 18 19 15 16
21 22 23 24 25 26 29 28 23 24 30 27 5 4 3 8 12 20 27 23 26 16 10 4 3 7 7 10 7 4 8 3 2 2 3 0 8 11 13 5 2 4 10 14 17 10 15
21 23 24 24 26 26 27 27 25 23 20 13 3 4 5 11 14 21 22 17 22 24 19 12 9 12 10 7 9 12 13 11 11 7 6 6 14 15 19 18 17 17 18 18 21 21 18
21 22 24 25 25 27 28 27 27 27 33 5 3 4 2 14 20 21 19 23 22 24 15 21 18 14 18 16 15 11 14 15 15 7 10 5 11 13 21 19 19 21 24 25 24 25 24
22 24 25 27 26 27 29 29 27 34 44 4 3 3 5 13 18 17 18 24 25 16 14 18 16 15 13 18 16 15 10 10 9 10 10 7 7 10 18 16 17 16 25 25 27 23 22
23 24 26 25 28 28 27 21 21 45 39 9 6 5 4 9 14 21 24 25 22 18 18 12 12 13 7 2 2 3 7 11 14 15 14 13 11 9 12 7 15 15 6 11 17 20 23
22 21 20 24 23 24 24 19 21 30 21 16 9 5 2 5 14 16 20 18 15 12 9 14 9 5 6 6 4 4 6 4 11 20 20 18 16 7 9 14 19 21 9 5 9 18 16
16 13 17 22 22 22 21 24 25 28 25 19 11 11 1 6 9 6 16 11 10 10 8 10 8 8 3 4 4 6 7 8 5 4 6 18 19 14 15 17 20 17 15 7 5 12 13
7 7 16 2 12 17 28 21 24 21 22 16 7 6 3 4 5 7 6 9 9 8 6 7 9 8 12 7 8 9 13 9 10 12 5 4 7 17 16 17 13 9 6 9 8 5 1
4 4 5 12 10 16 30 25 24 25 23 15 11 10 5 3 6 6 7 7 9 11 8 7 6 5 7 8 6 7 8 11 14 13 16 11 7 7 13 10 11 10 11 8 0 1 4
3 5 3 6 10 12 17 24 27 26 24 15 9 9 5 2 3 3 8 8 5 3 7 9 5 6 6 7 8 6 7 5 14 14 11 9 11 8 8 3 2 15 0 4 2 2 6

GFSGBSN_925_spd_129.txt.gz
Wind_Speed
11 10 18 36 36 37 35 34 32 30 27 27 21 18 17 16 13 13 13 13 13 13 15 15 13 12 10 9 15 3 6 6 4 4 8 7 8 6 10 4 4 11 10 4 6 7 10
13 14 13 8 25 35 37 36 33 29 27 21 20 17 14 12 12 12 12 12 11 12 11 9 10 8 10 16 3 3 6 7 11 9 8 8 6 3 7 7 8 5 7 8 9 10 11
9 12 12 15 16 8 26 34 33 27 18 13 11 12 11 10 10 10 11 10 10 10 7 8 8 7 11 18 3 6 6 9 7 10 9 7 7 8 1 7 5 8 11 13 14 9 5
11 9 9 10 11 8 3 3 5 7 9 8 7 10 9 9 9 9 9 9 8 9 5 6 6 7 9 5 7 11 11 10 8 7 9 3 8 11 7 2 6 10 11 11 10 9 7
12 9 11 12 10 8 9 9 8 7 7 7 7 8 9 8 9 8 7 6 6 7 6 4 5 7 10 2 9 12 15 14 10 8 6 6 8 9 8 12 11 12 11 13 10 10 4
11 12 10 17 17 15 17 16 16 15 14 13 12 10 10 9 9 7 5 4 3 4 3 7 11 6 10 5 3 5 11 15 11 11 8 11 8 10 11 12 12 9 13 8 10 12 9
8 10 13 14 19 23 22 23 22 20 18 17 15 13 12 10 9 7 7 4 6 7 17 11 6 12 2 3 6 10 11 17 12 15 13 15 11 14 19 17 17 10 11 13 12 7 5
6 6 7 14 20 23 24 26 26 24 22 20 19 18 15 12 11 9 10 7 6 7 10 20 22 21 13 2 7 11 16 14 16 17 16 9 17 18 12 5 10 12 14 15 14 7 5
6 8 9 8 10 15 22 28 27 26 23 22 21 18 17 15 12 10 13 11 6 6 8 16 20 22 17 17 11 17 18 17 16 18 18 17 1 10 12 11 14 15 16 14 13 7 12
11 10 11 12 11 11 16 29 26 25 25 24 23 21 20 14 8 12 15 15 5 6 5 10 11 9 15 12 11 28 26 14 15 16 17 15 19 10 12 16 14 15 14 10 10 10 9
10 11 10 10 12 12 11 13 22 22 27 26 26 24 22 22 4 17 3 13 10 2 4 7 11 6 9 17 5 17 25 22 20 16 14 12 13 15 18 18 13 13 2 7 10 11 13
9 9 11 12 14 13 13 10 14 21 29 30 30 28 24 20 7 8 6 16 12 4 11 9 8 11 14 20 13 5 20 19 12 20 16 19 2 12 15 9 10 2 7 9 10 11 12
10 10 11 12 13 13 15 14 11 16 25 31 34 31 29 21 16 13 16 14 6 8 7 9 9 12 17 13 18 14 20 22 15 17 20 15 16 11 7 11 10 13 11 6 10 9 10
14 14 14 13 13 15 14 16 17 15 21 30 35 33 30 23 11 20 22 9 9 17 26 4 6 11 17 14 18 18 18 20 26 19 10 16 16 21 17 16 11 19 15 8 10 10 10
15 15 16 14 14 14 15 17 16 24 18 28 37 35 29 28 21 24 10 12 14 16 21 21 7 14 16 18 9 15 18 20 22 20 14 15 15 21 11 17 17 12 16 14 16 16 12
16 17 16 15 15 14 17 18 16 21 19 23 35 27 30 33 25 18 12 17 17 25 14 12 23 15 17 17 13 15 16 16 18 24 18 7 9 12 9 12 13 12 8 7 8 7 17
16 17 17 16 15 15 17 18 18 18 24 31 22 5 16 35 27 9 11 19 26 19 6 10 17 19 14 15 18 19 16 4 16 16 18 10 8 10 11 14 14 12 11 10 10 14 12
17 17 18 17 17 16 17 19 20 19 19 20 3 7 24 36 10 11 11 32 25 26 10 7 7 6 12 6 15 17 13 6 3 6 14 16 6 12 16 12 17 18 21 19 11 17 12
18 18 18 18 18 17 18 20 20 20 17 6 2 2 29 30 11 15 26 29 24 25 17 15 9 7 5 9 8 10 9 7 3 6 1 7 6 9 14 13 9 15 21 19 20 16 23
20 20 20 20 20 19 18 20 21 21 18 14 2 4 4 8 5 20 26 20 26 24 19 13 16 15 9 9 8 6 7 5 4 6 8 4 9 12 15 16 2 6 19 19 21 15 18
21 20 19 20 21 20 19 20 21 24 23 17 5 3 5 9 12 17 25 21 25 26 20 13 7 14 16 14 14 12 8 6 5 5 1 4 9 16 21 23 11 11 13 18 18 17 12
19 19 19 21 22 22 21 21 22 22 21 7 4 4 4 16 24 22 21 25 26 25 22 22 18 15 17 13 14 12 14 15 15 14 15 11 9 17 22 23 22 22 22 26 22 23 23
19 20 20 22 24 24 24 24 25 23 22 5 6 6 5 9 22 18 20 27 27 23 21 24 23 20 18 17 16 15 14 10 12 13 14 16 13 15 21 20 20 18 29 23 25 26 24
20 21 23 24 25 26 25 24 29 27 29 13 10 5 3 7 16 21 24 24 23 19 15 13 13 16 12 7 6 7 8 7 8 12 14 8 9 6 6 11 13 13 17 25 21 24 23
22 22 23 22 22 26 28 26 29 29 29 24 17 7 3 4 15 21 21 20 17 14 15 18 17 16 5 13 4 4 5 6 12 23 22 20 15 8 7 12 16 19 15 6 11 17 17
20 19 16 16 23 34 35 26 26 24 31 39 26 18 4 5 12 20 16 15 13 13 14 10 4 6 5 3 3 5 6 9 7 8 12 20 18 13 12 14 17 19 20 13 10 14 16
13 12 11 18 27 17 20 23 22 24 27 16 14 18 7 3 2 7 14 14 12 11 9 10 12 9 9 6 6 6 12 12 6 8 6 5 9 16 15 14 16 24 24 2 11 14 7
5 6 10 14 27 19 22 19 25 29 26 14 14 19 8 3 5 3 4 10 10 11 10 9 7 6 7 7 6 9 8 11 15 13 16 9 7 10 13 17 18 14 2 12 5 0 1
4 5 8 12 24 7 24 26 19 28 20 19 8 8 4 4 5 4 6 7 7 10 8 10 6 9 6 7 7 6 9 7 14 15 18 16 13 11 11 6 6 6 9 8 3 3 2

GFSGBSN_925_spd_132.txt.gz
Wind_Speed
4 6 11 6 6 25 36 35 33 31 29 29 27 26 20 19 17 16 16 14 14 15 16 16 15 15 10 9 14 2 1 2 5 10 12 9 10 10 14 12 12 10 14 4 5 3 4
12 10 11 12 10 19 15 36 35 33 31 31 27 23 19 16 15 14 13 12 11 12 13 13 13 11 8 15 6 4 4 7 10 11 13 11 9 8 11 14 9 5 9 10 7 9 8
7 8 14 16 17 17 19 10 28 33 31 23 18 14 12 9 10 10 11 11 10 10 11 12 10 7 11 21 13 9 6 9 11 11 12 12 10 9 3 12 14 7 11 13 15 13 9
7 7 8 9 9 8 7 7 6 10 10 6 4 1 4 6 8 9 10 10 9 9 11 9 7 6 9 13 12 18 15 13 10 9 10 13 6 13 16 11 5 10 13 13 14 18 8
9 6 7 9 10 4 4 5 4 4 5 7 7 6 6 6 7 8 10 9 7 9 10 7 6 8 10 4 12 16 15 15 13 11 9 10 8 14 10 12 11 14 12 18 10 15 12
7 6 8 8 13 14 13 12 15 18 20 13 10 9 5 8 7 7 8 7 8 8 8 9 13 8 11 11 5 7 12 16 13 10 9 9 7 10 13 13 14 15 19 16 16 16 9
4 6 9 11 9 6 17 16 16 17 16 15 14 13 11 10 9 7 6 6 5 6 14 10 10 7 2 7 2 8 11 15 14 13 15 14 11 16 21 20 20 18 12 12 10 10 15
3 4 5 6 10 15 15 22 21 21 19 16 15 14 12 11 10 9 11 5 5 9 9 20 25 24 25 3 8 13 15 14 18 18 18 16 19 20 20 21 21 21 17 15 15 14 14
1 2 4 6 7 10 14 13 17 22 20 18 16 17 15 12 8 9 12 9 7 7 8 18 25 25 21 25 17 12 18 20 19 20 20 21 13 22 21 21 13 15 15 15 17 15 6
5 4 2 5 7 9 11 15 17 27 23 20 19 20 17 14 5 13 17 14 4 0 5 9 14 16 26 20 15 32 24 19 14 20 22 24 22 12 12 19 14 18 17 17 17 12 12
2 3 5 6 5 6 9 10 13 20 23 23 24 23 22 25 2 15 8 15 7 2 4 4 13 8 8 20 5 18 33 23 21 20 15 18 18 19 20 20 17 16 9 7 7 11 14
2 3 4 5 8 10 9 7 8 9 10 20 24 26 25 23 14 8 9 17 10 4 10 6 8 10 12 24 20 10 25 20 16 21 22 21 15 16 18 19 18 13 5 6 8 10 12
3 4 5 7 9 10 10 11 7 9 9 12 24 29 31 26 16 14 20 11 6 6 5 10 10 15 19 19 21 19 18 25 17 17 24 21 23 14 10 14 14 12 8 5 8 8 10
6 6 6 7 9 11 12 12 11 9 9 15 12 33 34 31 23 21 24 8 11 16 21 6 17 18 21 18 21 24 18 21 24 22 10 18 19 23 17 20 15 18 18 6 9 9 13
6 6 7 7 8 10 11 11 12 12 12 12 20 24 25 38 26 22 8 13 10 11 14 17 16 17 20 21 14 23 25 22 24 26 19 14 24 15 23 19 19 18 20 14 14 12 7
7 7 8 9 9 10 12 13 12 12 11 10 5 6 22 39 30 17 11 16 14 23 20 13 21 16 20 21 21 23 17 18 24 25 24 14 15 22 24 17 23 18 15 12 6 6 10
8 8 9 10 11 11 12 14 12 11 9 8 2 1 7 37 29 7 9 11 22 25 20 12 20 21 17 16 19 18 16 18 23 22 23 19 12 8 16 15 19 12 15 9 9 9 3
9 10 10 11 13 13 13 14 14 10 8 4 4 3 6 31 11 4 13 24 28 22 21 8 9 15 17 17 13 18 20 12 9 15 25 21 7 10 21 15 16 16 18 15 7 10 7
11 11 12 13 14 14 14 14 14 11 8 1 2 3 7 27 11 7 23 29 25 22 21 4 8 12 11 10 13 15 2 2 13 6 9 15 7 9 14 16 18 18 16 15 16 10 15
14 14 14 15 16 15 15 14 14 11 10 6 0 4 2 5 9 11 22 25 24 27 24 15 12 16 14 11 15 3 8 6 7 5 10 5 5 11 10 11 3 6 14 13 11 13 18
16 16 16 17 16 16 16 15 15 12 11 10 3 5 4 4 8 13 22 18 26 24 24 11 7 18 12 10 15 13 10 4 3 0 4 4 5 9 13 14 11 6 9 12 15 15 14
17 18 17 17 16 16 16 16 16 15 12 12 4 4 4 8 6 19 22 24 25 25 22 19 12 10 14 10 3 9 13 13 11 7 2 3 3 8 14 14 14 11 11 22 21 20 16
17 17 18 18 18 18 19 19 20 19 16 7 9 8 6 6 10 15 18 25 26 23 23 25 25 18 13 13 5 5 9 9 15 10 9 6 6 7 16 16 15 15 26 23 25 22 16
17 18 19 20 21 22 22 23 23 25 24 18 12 7 6 14 13 17 25 25 24 24 19 22 22 19 15 11 7 3 2 6 8 11 10 4 3 4 9 12 20 16 16 20 21 19 19
18 20 21 22 23 23 21 22 25 26 27 28 21 13 4 5 13 21 26 21 23 24 19 18 11 11 8 6 5 3 3 5 13 23 16 15 12 6 5 6 9 13 13 9 8 7 15
19 20 21 23 20 18 20 26 31 32 33 32 33 26 7 7 10 28 21 19 7 6 4 9 6 12 7 3 2 5 4 6 5 6 21 20 16 10 4 3 4 9 13 12 9 6 13
17 19 18 17 17 21 25 28 29 38 37 35 22 35 15 3 5 5 8 10 13 9 4 11 7 8 11 5 4 4 6 8 5 6 5 9 11 16 13 10 8 16 17 16 14 9 7
14 12 13 14 18 24 29 29 26 27 31 32 28 31 27 5 6 10 15 12 9 11 7 12 7 5 6 6 4 4 5 5 8 9 10 6 4 7 9 10 15 6 9 13 5 3 4
9 8 9 15 22 28 29 17 21 23 26 27 10 25 25 3 4 8 7 6 5 2 6 10 5 13 6 5 6 4 5 3 10 11 12 13 9 5 5 3 2 5 5 7 4 3 1

GFSGBSN_925_spd_135.txt.gz
Wind_Speed
4 9 9 10 8 8 7 15 30 30 28 27 26 25 24 23 21 16 17 16 16 16 17 18 16 17 9 3 10 18 4 4 6 8 11 11 9 5 7 7 7 5 4 7 3 9 6
8 8 7 7 4 10 5 12 17 30 29 29 30 26 27 23 17 15 14 14 15 15 15 16 14 13 2 6 7 10 5 4 10 11 15 14 6 8 6 6 3 4 4 6 2 5 6
6 4 7 14 18 18 14 11 15 18 21 16 11 11 11 7 9 8 10 11 13 13 13 13 11 7 4 17 12 11 10 9 10 15 9 18 18 3 7 8 7 8 3 7 8 5 4
11 9 6 7 8 9 8 3 2 10 14 10 14 10 3 4 7 5 8 9 10 11 12 11 8 3 7 16 16 20 16 18 14 16 9 14 14 5 1 7 8 3 4 4 7 11 5
10 9 8 8 8 9 6 4 7 8 8 5 9 3 4 4 6 4 7 7 9 9 12 9 6 3 9 10 10 21 15 10 13 12 11 11 6 2 6 3 5 5 4 8 12 12 8
8 7 9 8 9 10 12 13 8 7 5 5 0 3 6 3 4 5 6 7 7 10 5 6 10 5 8 7 7 9 14 13 9 6 6 5 1 3 4 5 7 6 8 7 9 3 8
6 7 7 8 7 11 11 19 12 9 10 9 5 9 10 7 6 4 3 7 3 2 5 9 7 7 7 7 2 4 7 12 9 5 7 7 4 9 19 14 8 9 11 7 6 8 9
7 6 4 3 4 9 12 10 14 17 13 11 9 8 8 8 7 5 5 1 3 3 9 18 23 21 28 20 7 8 13 7 7 13 8 6 16 17 12 11 14 17 18 12 9 4 5
7 6 5 3 1 2 4 5 10 11 18 15 12 10 9 9 6 6 7 9 4 4 4 9 19 17 16 20 13 12 12 8 8 11 13 16 8 18 16 16 18 16 17 10 9 7 2
4 3 4 4 2 2 2 5 7 9 11 19 15 13 13 10 4 6 5 12 8 0 3 7 6 8 14 15 11 29 20 8 7 15 15 13 18 23 18 19 15 12 5 6 5 5 8
9 5 3 2 2 2 3 5 6 7 10 24 17 16 17 18 5 8 5 11 2 2 3 3 4 1 7 16 5 13 39 13 16 11 11 9 12 16 22 8 17 9 2 1 1 3 2
6 4 4 3 2 3 2 4 6 7 4 8 17 20 22 19 11 5 4 15 7 2 8 7 6 5 7 21 10 4 13 10 8 12 15 13 12 9 21 12 11 3 3 4 4 3 5
6 5 2 2 2 3 5 7 5 6 8 3 4 15 23 24 9 11 14 10 3 5 6 8 8 9 11 12 21 12 5 19 13 9 17 14 21 21 7 5 6 7 7 2 2 1 8
5 4 3 1 1 2 5 6 7 6 6 6 2 7 29 29 20 18 16 2 7 12 17 8 5 13 13 12 15 18 11 17 22 12 3 13 11 17 10 13 6 10 11 6 7 5 4
7 5 3 2 1 1 3 5 5 6 7 8 9 4 10 30 23 22 4 8 9 7 6 7 17 15 17 15 9 17 23 23 18 26 14 9 14 8 21 6 11 5 14 9 4 1 2
7 6 4 3 1 1 3 3 4 5 7 8 4 4 9 9 29 15 6 10 7 13 9 7 6 5 10 18 18 15 14 18 23 18 20 5 5 12 12 10 19 10 4 6 4 5 8
6 5 4 2 1 0 1 3 4 3 3 5 4 2 5 13 24 5 7 8 12 17 11 3 7 9 7 11 12 20 15 13 21 18 14 23 10 6 8 21 23 13 14 5 7 7 5
8 6 4 2 2 2 1 2 4 3 2 3 4 1 2 13 8 2 8 5 16 18 11 8 4 8 8 13 14 12 16 16 14 9 19 23 10 15 18 6 16 16 21 13 6 10 5
10 7 5 3 3 3 1 1 1 2 3 5 3 2 6 7 4 8 3 17 10 7 19 9 5 4 7 9 7 7 2 7 17 9 7 8 10 5 11 6 8 17 17 16 11 5 14
11 9 7 6 5 5 3 3 1 2 4 5 2 2 1 3 2 8 10 11 20 25 19 18 7 12 7 10 12 4 6 10 11 11 20 15 5 20 14 2 3 12 13 8 4 7 9
11 10 8 7 7 7 5 4 5 5 6 8 2 4 3 3 6 14 14 8 16 21 18 13 6 13 8 5 11 4 4 5 4 6 7 7 0 10 4 10 9 7 9 6 2 3 5
12 11 11 10 9 7 6 6 7 8 9 8 4 2 3 4 8 12 11 9 24 19 18 23 11 11 12 11 12 3 5 3 2 1 3 1 3 5 6 7 7 4 10 11 8 9 7
13 12 11 10 9 9 9 9 9 11 13 6 7 7 1 5 4 6 12 15 10 16 14 17 19 12 10 7 5 6 5 6 3 1 3 0 1 3 5 10 12 4 10 11 11 12 8
15 13 12 12 12 13 13 13 15 16 20 17 6 4 3 11 8 14 16 16 21 19 21 14 15 21 21 7 9 5 4 4 7 6 4 1 2 3 4 7 5 7 12 17 17 17 14
15 14 13 14 16 17 17 18 17 18 20 24 19 11 3 10 11 19 21 22 21 15 24 22 13 11 4 4 4 2 2 5 5 9 10 8 4 1 1 3 7 10 10 3 9 10 1
16 15 16 18 20 19 19 17 19 22 21 22 22 26 6 8 18 20 18 20 14 14 15 6 2 13 6 3 3 4 3 2 3 3 10 11 9 4 3 3 4 5 4 5 3 5 6
19 17 17 18 20 18 19 18 20 22 22 25 25 27 11 10 17 14 15 13 16 11 3 3 7 2 5 3 3 3 3 4 4 4 4 4 2 11 7 6 5 9 14 11 2 7 5
15 18 17 16 18 18 20 22 26 29 31 27 32 33 24 8 17 15 13 13 8 6 8 7 5 2 2 3 4 4 3 5 4 5 4 4 5 4 5 7 8 2 1 2 5 2 1
14 12 12 14 16 20 23 28 35 37 39 36 27 32 33 9 8 16 36 45 23 11 4 8 1 5 4 4 2 3 2 1 5 2 6 3 6 5 8 6 6 6 7 8 7 5 4